Time,TemperatureF,DewpointF,PressureIn,WindDirection,WindDirectionDegrees,WindSpeedMPH,WindSpeedGustMPH,Humidity,HourlyPrecipIn,Conditions,Clouds,dailyrainin,SoftwareType,DateUTC
2013-04-21 00:01:00,48.9,25.0,30.22,WNW,298,10.0,19.0,39,0.00,,,0.34,VWS V14.01,2013-04-21 04:01:00,
2013-04-21 00:03:00,48.9,25.0,30.23,NW,306,9.0,19.0,39,0.00,,,0.34,VWS V14.01,2013-04-21 04:03:00,
2013-04-21 00:04:00,48.8,25.0,30.23,WNW,299,10.0,11.0,39,0.00,,,0.00,VWS V14.01,2013-04-21 04:04:00,
2013-04-21 00:06:00,48.8,25.6,30.23,WNW,290,12.0,13.0,40,0.00,,,0.00,VWS V14.01,2013-04-21 04:06:00,
2013-04-21 00:07:00,48.8,25.6,30.23,NW,323,9.0,17.0,40,0.00,,,0.00,VWS V14.01,2013-04-21 04:07:00,
2013-04-21 00:09:00,48.8,25.0,30.23,NW,312,11.0,17.0,39,0.00,,,0.00,VWS V14.01,2013-04-21 04:09:00,
2013-04-21 00:11:00,48.6,25.4,30.23,WNW,290,2.0,17.0,40,0.00,,,0.00,VWS V14.01,2013-04-21 04:11:00,
2013-04-21 00:12:00,48.6,25.4,30.23,WNW,289,0.0,17.0,40,0.00,,,0.00,VWS V14.01,2013-04-21 04:12:00,
2013-04-21 00:14:00,48.5,25.3,30.23,West,277,0.0,17.0,40,0.00,,,0.00,VWS V14.01,2013-04-21 04:14:00,
2013-04-21 00:15:00,48.5,25.3,30.23,WNW,292,7.0,17.0,40,0.00,,,0.00,VWS V14.01,2013-04-21 04:15:00,
2013-04-21 00:17:00,48.3,25.1,30.23,West,281,7.0,17.0,40,0.00,,,0.00,VWS V14.01,2013-04-21 04:17:00,
2013-04-21 00:19:00,48.3,25.7,30.23,NW,310,9.0,17.0,41,0.00,,,0.00,VWS V14.01,2013-04-21 04:19:00,
2013-04-21 00:20:00,48.2,25.6,30.23,WNW,301,8.0,17.0,41,0.00,,,0.00,VWS V14.01,2013-04-21 04:20:00,
2013-04-21 00:21:00,48.2,25.6,30.23,WNW,292,7.0,17.0,41,0.00,,,0.00,VWS V14.01,2013-04-21 04:21:00,
2013-04-21 00:22:00,48.2,25.6,30.23,WNW,295,7.0,17.0,41,0.00,,,0.00,VWS V14.01,2013-04-21 04:22:00,
2013-04-21 00:26:00,48.2,25.6,30.23,NW,306,5.0,17.0,41,0.00,,,0.00,VWS V14.01,2013-04-21 04:26:00,
2013-04-21 00:27:00,48.0,25.4,30.23,NW,317,13.0,17.0,41,0.00,,,0.00,VWS V14.01,2013-04-21 04:27:00,
2013-04-21 00:30:00,48.0,25.4,30.23,NW,316,5.0,17.0,41,0.00,,,0.00,VWS V14.01,2013-04-21 04:30:00,
2013-04-21 00:31:00,48.0,25.4,30.23,NNW,327,4.0,17.0,41,0.00,,,0.00,VWS V14.01,2013-04-21 04:31:00,
2013-04-21 00:32:00,48.0,25.4,30.23,WNW,300,9.0,17.0,41,0.00,,,0.00,VWS V14.01,2013-04-21 04:32:00,
2013-04-21 00:34:00,47.9,25.4,30.24,WNW,284,6.0,13.0,41,0.00,,,0.00,VWS V14.01,2013-04-21 04:34:00,
2013-04-21 00:35:00,47.9,25.4,30.24,WNW,300,7.0,13.0,41,0.00,,,0.00,VWS V14.01,2013-04-21 04:35:00,
2013-04-21 00:36:00,47.9,25.9,30.24,NW,306,7.0,13.0,42,0.00,,,0.00,VWS V14.01,2013-04-21 04:36:00,
2013-04-21 00:37:00,47.9,25.9,30.24,WNW,300,8.0,13.0,42,0.00,,,0.00,VWS V14.01,2013-04-21 04:37:00,
2013-04-21 00:39:00,47.7,25.8,30.24,NW,316,6.0,13.0,42,0.00,,,0.00,VWS V14.01,2013-04-21 04:39:00,
2013-04-21 00:42:00,47.7,25.8,30.24,WNW,302,11.0,13.0,42,0.00,,,0.00,VWS V14.01,2013-04-21 04:42:00,
2013-04-21 00:43:00,47.6,25.7,30.24,WNW,302,1.0,13.0,42,0.00,,,0.00,VWS V14.01,2013-04-21 04:43:00,
2013-04-21 00:46:00,47.6,26.2,30.24,NW,306,8.0,13.0,43,0.00,,,0.00,VWS V14.01,2013-04-21 04:46:00,
2013-04-21 00:50:00,47.4,26.0,30.24,NW,306,1.0,13.0,43,0.00,,,0.00,VWS V14.01,2013-04-21 04:50:00,
2013-04-21 00:51:00,47.4,26.0,30.24,NW,312,10.0,13.0,43,0.00,,,0.00,VWS V14.01,2013-04-21 04:51:00,
2013-04-21 00:54:00,47.3,26.0,30.24,WNW,290,1.0,13.0,43,0.00,,,0.00,VWS V14.01,2013-04-21 04:54:00,
2013-04-21 00:55:00,47.3,26.0,30.24,NW,320,3.0,13.0,43,0.00,,,0.00,VWS V14.01,2013-04-21 04:55:00,
2013-04-21 00:57:00,47.1,25.8,30.24,NW,316,5.0,13.0,43,0.00,,,0.00,VWS V14.01,2013-04-21 04:57:00,
2013-04-21 00:58:00,47.1,26.3,30.24,NNW,337,5.0,13.0,44,0.00,,,0.00,VWS V14.01,2013-04-21 04:58:00,
2013-04-21 00:59:00,47.1,26.3,30.24,NNW,327,9.0,13.0,44,0.00,,,0.00,VWS V14.01,2013-04-21 04:59:00,
2013-04-21 01:04:00,46.8,26.0,30.25,WNW,302,7.0,13.0,44,0.00,,,0.00,VWS V14.01,2013-04-21 05:04:00,
2013-04-21 01:05:00,46.8,26.0,30.25,NW,316,9.0,13.0,44,0.00,,,0.00,VWS V14.01,2013-04-21 05:05:00,
2013-04-21 01:07:00,46.8,26.0,30.25,NW,319,0.0,13.0,44,0.00,,,0.00,VWS V14.01,2013-04-21 05:07:00,
2013-04-21 01:08:00,46.8,26.0,30.25,NNW,331,5.0,13.0,44,0.00,,,0.00,VWS V14.01,2013-04-21 05:08:00,
2013-04-21 01:11:00,46.8,26.0,30.25,NW,319,4.0,13.0,44,0.00,,,0.00,VWS V14.01,2013-04-21 05:11:00,
2013-04-21 01:12:00,46.8,26.0,30.25,NW,326,5.0,13.0,44,0.00,,,0.00,VWS V14.01,2013-04-21 05:12:00,
2013-04-21 01:13:00,46.7,26.0,30.25,NW,325,6.0,13.0,44,0.00,,,0.00,VWS V14.01,2013-04-21 05:13:00,
2013-04-21 01:17:00,46.5,25.8,30.25,NW,319,3.0,13.0,44,0.00,,,0.00,VWS V14.01,2013-04-21 05:17:00,
2013-04-21 01:18:00,46.5,26.3,30.25,NNW,333,3.0,13.0,45,0.00,,,0.00,VWS V14.01,2013-04-21 05:18:00,
2013-04-21 01:19:00,46.5,26.3,30.25,North,355,3.0,13.0,45,0.00,,,0.00,VWS V14.01,2013-04-21 05:19:00,
2013-04-21 01:21:00,46.5,25.8,30.25,NNW,329,0.0,13.0,44,0.00,,,0.00,VWS V14.01,2013-04-21 05:21:00,
2013-04-21 01:22:00,46.5,26.3,30.25,NNW,330,0.0,13.0,45,0.00,,,0.00,VWS V14.01,2013-04-21 05:22:00,
2013-04-21 01:24:00,46.4,26.2,30.25,NNW,336,9.0,13.0,45,0.00,,,0.00,VWS V14.01,2013-04-21 05:24:00,
2013-04-21 01:25:00,46.4,26.2,30.25,NW,325,9.0,13.0,45,0.00,,,0.00,VWS V14.01,2013-04-21 05:25:00,
2013-04-21 01:26:00,46.4,26.2,30.25,NNW,327,7.0,13.0,45,0.00,,,0.00,VWS V14.01,2013-04-21 05:26:00,
2013-04-21 01:28:00,46.2,25.5,30.25,NW,319,12.0,13.0,44,0.00,,,0.00,VWS V14.01,2013-04-21 05:28:00,
2013-04-21 01:29:00,46.4,25.1,30.25,NW,305,8.0,13.0,43,0.00,,,0.00,VWS V14.01,2013-04-21 05:29:00,
2013-04-21 01:31:00,46.2,25.0,30.25,NNW,335,6.0,13.0,43,0.00,,,0.00,VWS V14.01,2013-04-21 05:31:00,
2013-04-21 01:32:00,46.2,25.0,30.25,WNW,302,9.0,13.0,43,0.00,,,0.00,VWS V14.01,2013-04-21 05:32:00,
2013-04-21 01:34:00,46.2,25.5,30.27,NNW,336,7.0,13.0,44,0.00,,,0.00,VWS V14.01,2013-04-21 05:34:00,
2013-04-21 01:35:00,46.2,25.0,30.27,NW,321,4.0,10.0,43,0.00,,,0.00,VWS V14.01,2013-04-21 05:35:00,
2013-04-21 01:36:00,46.2,25.0,30.27,North,5,13.0,13.0,43,0.00,,,0.00,VWS V14.01,2013-04-21 05:36:00,
2013-04-21 01:37:00,46.2,25.0,30.27,North,350,7.0,14.0,43,0.00,,,0.00,VWS V14.01,2013-04-21 05:37:00,
2013-04-21 01:41:00,46.2,25.0,30.27,NW,321,8.0,14.0,43,0.00,,,0.00,VWS V14.01,2013-04-21 05:41:00,
2013-04-21 01:42:00,46.2,25.5,30.27,NNW,331,12.0,14.0,44,0.00,,,0.00,VWS V14.01,2013-04-21 05:42:00,
2013-04-21 01:43:00,46.1,24.9,30.27,NNW,340,12.0,14.0,43,0.00,,,0.00,VWS V14.01,2013-04-21 05:43:00,
2013-04-21 01:44:00,46.1,24.9,30.27,NW,323,7.0,14.0,43,0.00,,,0.00,VWS V14.01,2013-04-21 05:44:00,
2013-04-21 01:47:00,46.1,24.9,30.27,NNW,338,8.0,14.0,43,0.00,,,0.00,VWS V14.01,2013-04-21 05:47:00,
2013-04-21 01:48:00,46.1,25.4,30.27,NNW,340,6.0,14.0,44,0.00,,,0.00,VWS V14.01,2013-04-21 05:48:00,
2013-04-21 01:49:00,46.1,25.4,30.27,NNW,347,9.0,14.0,44,0.00,,,0.00,VWS V14.01,2013-04-21 05:49:00,
2013-04-21 01:50:00,46.0,25.9,30.27,NNW,328,8.0,14.0,45,0.00,,,0.00,VWS V14.01,2013-04-21 05:50:00,
2013-04-21 01:54:00,45.8,25.1,30.27,North,355,7.0,17.0,44,0.00,,,0.00,VWS V14.01,2013-04-21 05:54:00,
2013-04-21 01:55:00,45.8,25.1,30.27,North,5,8.0,17.0,44,0.00,,,0.00,VWS V14.01,2013-04-21 05:55:00,
2013-04-21 01:56:00,45.7,25.0,30.27,North,350,7.0,19.0,44,0.00,,,0.00,VWS V14.01,2013-04-21 05:56:00,
2013-04-21 01:57:00,45.7,25.0,30.27,NNW,342,7.0,19.0,44,0.00,,,0.00,VWS V14.01,2013-04-21 05:57:00,
2013-04-21 02:01:00,45.2,24.0,30.27,North,355,11.0,19.0,43,0.00,,,0.00,VWS V14.01,2013-04-21 06:01:00,
2013-04-21 02:02:00,45.2,24.0,30.27,North,5,13.0,19.0,43,0.00,,,0.00,VWS V14.01,2013-04-21 06:02:00,
2013-04-21 02:04:00,44.9,23.8,30.29,NNW,344,12.0,20.0,43,0.00,,,0.00,VWS V14.01,2013-04-21 06:04:00,
2013-04-21 02:05:00,44.9,23.8,30.29,NW,321,13.0,18.0,43,0.00,,,0.00,VWS V14.01,2013-04-21 06:05:00,
2013-04-21 02:06:00,44.8,23.7,30.29,NNW,348,19.0,19.0,43,0.00,,,0.00,VWS V14.01,2013-04-21 06:06:00,
2013-04-21 02:08:00,44.6,23.5,30.29,NNE,23,6.0,21.0,43,0.00,,,0.00,VWS V14.01,2013-04-21 06:08:00,
2013-04-21 02:11:00,44.5,23.4,30.29,North,5,13.0,21.0,43,0.00,,,0.00,VWS V14.01,2013-04-21 06:11:00,
2013-04-21 02:12:00,44.5,24.0,30.29,WNW,290,10.0,21.0,44,0.00,,,0.00,VWS V14.01,2013-04-21 06:12:00,
2013-04-21 02:13:00,44.3,23.2,30.29,NNW,340,12.0,21.0,43,0.00,,,0.00,VWS V14.01,2013-04-21 06:13:00,
2013-04-21 02:16:00,44.1,23.0,30.29,North,350,14.0,21.0,43,0.00,,,0.00,VWS V14.01,2013-04-21 06:16:00,
2013-04-21 02:17:00,44.1,23.0,30.29,North,355,15.0,21.0,43,0.00,,,0.00,VWS V14.01,2013-04-21 06:17:00,
2013-04-21 02:18:00,44.1,23.0,30.29,North,5,5.0,21.0,43,0.00,,,0.00,VWS V14.01,2013-04-21 06:18:00,
2013-04-21 02:20:00,43.9,22.9,30.30,NNE,26,10.0,21.0,43,0.00,,,0.00,VWS V14.01,2013-04-21 06:20:00,
2013-04-21 02:21:00,43.8,22.8,30.30,NNE,19,12.0,21.0,43,0.00,,,0.00,VWS V14.01,2013-04-21 06:21:00,
2013-04-21 02:23:00,43.8,23.3,30.30,North,5,10.0,21.0,44,0.00,,,0.00,VWS V14.01,2013-04-21 06:23:00,
2013-04-21 02:26:00,43.5,22.5,30.30,NNW,342,10.0,21.0,43,0.00,,,0.00,VWS V14.01,2013-04-21 06:26:00,
2013-04-21 02:28:00,43.3,22.3,30.30,NNW,347,15.0,21.0,43,0.00,,,0.00,VWS V14.01,2013-04-21 06:28:00,
2013-04-21 02:29:00,43.3,22.3,30.30,NW,325,5.0,21.0,43,0.00,,,0.00,VWS V14.01,2013-04-21 06:29:00,
2013-04-21 02:30:00,43.3,22.3,30.30,NW,321,6.0,21.0,43,0.00,,,0.00,VWS V14.01,2013-04-21 06:30:00,
2013-04-21 02:31:00,43.2,22.2,30.30,North,355,9.0,21.0,43,0.00,,,0.00,VWS V14.01,2013-04-21 06:31:00,
2013-04-21 02:35:00,43.1,22.7,30.30,NNW,333,9.0,14.0,44,0.00,,,0.00,VWS V14.01,2013-04-21 06:35:00,
2013-04-21 02:36:00,42.9,22.5,30.30,NNW,344,17.0,17.0,44,0.00,,,0.00,VWS V14.01,2013-04-21 06:36:00,
2013-04-21 02:37:00,42.9,22.5,30.30,North,350,7.0,20.0,44,0.00,,,0.00,VWS V14.01,2013-04-21 06:37:00,
2013-04-21 02:39:00,42.8,22.4,30.30,NNE,14,8.0,20.0,44,0.00,,,0.00,VWS V14.01,2013-04-21 06:39:00,
2013-04-21 02:41:00,42.6,22.2,30.30,NNE,19,7.0,20.0,44,0.00,,,0.00,VWS V14.01,2013-04-21 06:41:00,
2013-04-21 02:42:00,42.6,22.2,30.30,NNE,13,11.0,20.0,44,0.00,,,0.00,VWS V14.01,2013-04-21 06:42:00,
2013-04-21 02:43:00,42.6,22.8,30.30,North,5,5.0,20.0,45,0.00,,,0.00,VWS V14.01,2013-04-21 06:43:00,
2013-04-21 02:47:00,42.3,22.5,30.30,North,11,0.0,20.0,45,0.00,,,0.00,VWS V14.01,2013-04-21 06:47:00,
2013-04-21 02:48:00,42.3,22.5,30.30,NNW,336,9.0,20.0,45,0.00,,,0.00,VWS V14.01,2013-04-21 06:48:00,
2013-04-21 02:49:00,42.2,22.4,30.30,NW,323,9.0,20.0,45,0.00,,,0.00,VWS V14.01,2013-04-21 06:49:00,
2013-04-21 02:50:00,42.2,22.4,30.30,North,355,11.0,20.0,45,0.00,,,0.00,VWS V14.01,2013-04-21 06:50:00,
2013-04-21 02:51:00,42.2,22.4,30.30,North,5,19.0,20.0,45,0.00,,,0.00,VWS V14.01,2013-04-21 06:51:00,
2013-04-21 02:54:00,42.1,21.8,30.30,NNW,341,10.0,20.0,44,0.00,,,0.00,VWS V14.01,2013-04-21 06:54:00,
2013-04-21 02:55:00,42.1,22.3,30.30,North,350,15.0,20.0,45,0.00,,,0.00,VWS V14.01,2013-04-21 06:55:00,
2013-04-21 02:56:00,41.9,21.6,30.30,North,350,16.0,20.0,44,0.00,,,0.00,VWS V14.01,2013-04-21 06:56:00,
2013-04-21 03:00:00,41.8,21.5,30.30,North,360,14.0,20.0,44,0.00,,,0.00,VWS V14.01,2013-04-21 07:00:00,
2013-04-21 03:01:00,41.8,21.5,30.30,NNW,340,6.0,20.0,44,0.00,,,0.00,VWS V14.01,2013-04-21 07:01:00,
2013-04-21 03:02:00,41.8,21.5,30.30,NNW,327,6.0,20.0,44,0.00,,,0.00,VWS V14.01,2013-04-21 07:02:00,
2013-04-21 03:03:00,41.8,21.5,30.30,NNW,342,9.0,20.0,44,0.00,,,0.00,VWS V14.01,2013-04-21 07:03:00,
2013-04-21 03:07:00,41.6,21.9,30.31,NNE,26,3.0,12.0,45,0.00,,,0.00,VWS V14.01,2013-04-21 07:07:00,
2013-04-21 03:08:00,41.5,21.8,30.31,NNW,345,8.0,12.0,45,0.00,,,0.00,VWS V14.01,2013-04-21 07:08:00,
2013-04-21 03:09:00,41.5,21.8,30.31,North,350,16.0,16.0,45,0.00,,,0.00,VWS V14.01,2013-04-21 07:09:00,
2013-04-21 03:11:00,41.3,21.6,30.31,NNW,348,13.0,17.0,45,0.00,,,0.00,VWS V14.01,2013-04-21 07:11:00,
2013-04-21 03:13:00,41.3,21.0,30.31,NNE,19,9.0,17.0,44,0.00,,,0.00,VWS V14.01,2013-04-21 07:13:00,
2013-04-21 03:14:00,41.3,21.6,30.31,North,355,8.0,17.0,45,0.00,,,0.00,VWS V14.01,2013-04-21 07:14:00,
2013-04-21 03:15:00,41.3,21.6,30.31,North,355,9.0,17.0,45,0.00,,,0.00,VWS V14.01,2013-04-21 07:15:00,
2013-04-21 03:18:00,41.2,21.5,30.31,North,9,6.0,17.0,45,0.00,,,0.00,VWS V14.01,2013-04-21 07:18:00,
2013-04-21 03:19:00,41.2,21.5,30.31,North,5,2.0,17.0,45,0.00,,,0.00,VWS V14.01,2013-04-21 07:19:00,
2013-04-21 03:20:00,41.2,22.0,30.31,NNW,330,6.0,17.0,46,0.00,,,0.00,VWS V14.01,2013-04-21 07:20:00,
2013-04-21 03:21:00,41.2,21.5,30.31,NNW,335,8.0,17.0,45,0.00,,,0.00,VWS V14.01,2013-04-21 07:21:00,
2013-04-21 03:25:00,41.1,21.9,30.31,North,355,7.0,17.0,46,0.00,,,0.00,VWS V14.01,2013-04-21 07:25:00,
2013-04-21 03:26:00,41.1,21.9,30.31,NNW,328,8.0,17.0,46,0.00,,,0.00,VWS V14.01,2013-04-21 07:26:00,
2013-04-21 03:27:00,41.1,21.9,30.31,NNW,344,5.0,17.0,46,0.00,,,0.00,VWS V14.01,2013-04-21 07:27:00,
2013-04-21 03:28:00,41.1,21.9,30.31,North,355,12.0,17.0,46,0.00,,,0.00,VWS V14.01,2013-04-21 07:28:00,
2013-04-21 03:30:00,40.9,21.7,30.31,NNW,338,6.0,17.0,46,0.00,,,0.00,VWS V14.01,2013-04-21 07:30:00,
2013-04-21 03:31:00,40.9,21.7,30.31,WNW,301,4.0,17.0,46,0.00,,,0.00,VWS V14.01,2013-04-21 07:31:00,
2013-04-21 03:32:00,40.9,21.7,30.31,NNW,332,7.0,17.0,46,0.00,,,0.00,VWS V14.01,2013-04-21 07:32:00,
2013-04-21 03:33:00,40.9,22.2,30.31,NE,43,2.0,17.0,47,0.00,,,0.00,VWS V14.01,2013-04-21 07:33:00,
2013-04-21 03:34:00,40.9,21.7,30.32,North,9,3.0,17.0,46,0.00,,,0.00,VWS V14.01,2013-04-21 07:34:00,
2013-04-21 03:38:00,40.8,22.1,30.32,NNW,333,8.0,11.0,47,0.00,,,0.00,VWS V14.01,2013-04-21 07:38:00,
2013-04-21 03:39:00,40.8,22.1,30.32,NW,313,8.0,11.0,47,0.00,,,0.00,VWS V14.01,2013-04-21 07:39:00,
2013-04-21 03:42:00,40.6,21.5,30.32,North,351,5.0,12.0,46,0.00,,,0.00,VWS V14.01,2013-04-21 07:42:00,
2013-04-21 03:44:00,40.6,22.0,30.32,NW,306,7.0,12.0,47,0.00,,,0.00,VWS V14.01,2013-04-21 07:44:00,
2013-04-21 03:45:00,40.6,22.0,30.32,NNW,334,11.0,12.0,47,0.00,,,0.00,VWS V14.01,2013-04-21 07:45:00,
2013-04-21 03:46:00,40.6,22.0,30.32,NNW,341,7.0,12.0,47,0.00,,,0.00,VWS V14.01,2013-04-21 07:46:00,
2013-04-21 03:48:00,40.6,22.0,30.32,NNW,329,4.0,12.0,47,0.00,,,0.00,VWS V14.01,2013-04-21 07:48:00,
2013-04-21 03:49:00,40.5,21.9,30.33,NW,316,3.0,12.0,47,0.00,,,0.00,VWS V14.01,2013-04-21 07:49:00,
2013-04-21 03:50:00,40.5,21.9,30.33,NNW,335,11.0,12.0,47,0.00,,,0.00,VWS V14.01,2013-04-21 07:50:00,
2013-04-21 03:55:00,40.5,21.4,30.33,NNW,337,5.0,14.0,46,0.00,,,0.00,VWS V14.01,2013-04-21 07:55:00,
2013-04-21 03:56:00,40.3,21.2,30.33,NNW,344,9.0,14.0,46,0.00,,,0.00,VWS V14.01,2013-04-21 07:56:00,
2013-04-21 03:57:00,40.3,21.2,30.33,NNW,330,11.0,15.0,46,0.00,,,0.00,VWS V14.01,2013-04-21 07:57:00,
2013-04-21 03:58:00,40.3,21.2,30.33,NNW,346,10.0,15.0,46,0.00,,,0.00,VWS V14.01,2013-04-21 07:58:00,
2013-04-21 04:02:00,40.3,21.2,30.33,NW,323,8.0,15.0,46,0.00,,,0.00,VWS V14.01,2013-04-21 08:02:00,
2013-04-21 04:03:00,40.3,21.2,30.33,NNE,21,9.0,15.0,46,0.00,,,0.00,VWS V14.01,2013-04-21 08:03:00,
2013-04-21 04:04:00,40.3,21.2,30.33,NNW,344,7.0,17.0,46,0.00,,,0.00,VWS V14.01,2013-04-21 08:04:00,
2013-04-21 04:05:00,40.3,21.2,30.33,NNW,340,8.0,14.0,46,0.00,,,0.00,VWS V14.01,2013-04-21 08:05:00,
2013-04-21 04:07:00,40.3,20.7,30.33,NNW,336,5.0,16.0,45,0.00,,,0.00,VWS V14.01,2013-04-21 08:07:00,
2013-04-21 04:08:00,40.3,21.2,30.33,NNE,23,11.0,16.0,46,0.00,,,0.00,VWS V14.01,2013-04-21 08:08:00,
2013-04-21 04:09:00,40.3,20.7,30.33,NW,313,9.0,16.0,45,0.00,,,0.00,VWS V14.01,2013-04-21 08:09:00,
2013-04-21 04:11:00,40.2,20.6,30.33,NNW,331,10.0,17.0,45,0.00,,,0.00,VWS V14.01,2013-04-21 08:11:00,
2013-04-21 04:12:00,40.2,20.6,30.33,NNW,334,13.0,17.0,45,0.00,,,0.00,VWS V14.01,2013-04-21 08:12:00,
2013-04-21 04:14:00,40.2,20.0,30.33,North,355,5.0,19.0,44,0.00,,,0.00,VWS V14.01,2013-04-21 08:14:00,
2013-04-21 04:16:00,40.2,20.0,30.33,NE,45,8.0,19.0,44,0.00,,,0.00,VWS V14.01,2013-04-21 08:16:00,
2013-04-21 04:17:00,40.2,20.0,30.33,WNW,285,7.0,19.0,44,0.00,,,0.00,VWS V14.01,2013-04-21 08:17:00,
2013-04-21 04:19:00,40.2,19.5,30.33,NNE,22,5.0,22.0,43,0.00,,,0.00,VWS V14.01,2013-04-21 08:19:00,
2013-04-21 04:20:00,40.2,19.5,30.33,NNW,340,14.0,22.0,43,0.00,,,0.00,VWS V14.01,2013-04-21 08:20:00,
2013-04-21 04:23:00,40.1,19.4,30.33,NNE,29,7.0,22.0,43,0.00,,,0.00,VWS V14.01,2013-04-21 08:23:00,
2013-04-21 04:25:00,40.1,19.4,30.33,NW,314,10.0,22.0,43,0.00,,,0.00,VWS V14.01,2013-04-21 08:25:00,
2013-04-21 04:28:00,40.1,19.4,30.33,NNW,339,2.0,22.0,43,0.00,,,0.00,VWS V14.01,2013-04-21 08:28:00,
2013-04-21 04:29:00,39.9,19.2,30.33,NNE,29,11.0,22.0,43,0.00,,,0.00,VWS V14.01,2013-04-21 08:29:00,
2013-04-21 04:31:00,39.9,19.8,30.33,NNW,327,8.0,22.0,44,0.00,,,0.00,VWS V14.01,2013-04-21 08:31:00,
2013-04-21 04:32:00,39.9,19.2,30.33,NNW,348,7.0,22.0,43,0.00,,,0.00,VWS V14.01,2013-04-21 08:32:00,
2013-04-21 04:33:00,39.8,19.1,30.34,NNE,19,4.0,22.0,43,0.00,,,0.00,VWS V14.01,2013-04-21 08:33:00,
2013-04-21 04:36:00,39.8,19.1,30.34,NW,322,9.0,15.0,43,0.00,,,0.00,VWS V14.01,2013-04-21 08:36:00,
2013-04-21 04:38:00,39.6,19.5,30.34,NNW,346,7.0,15.0,44,0.00,,,0.00,VWS V14.01,2013-04-21 08:38:00,
2013-04-21 04:41:00,39.6,19.5,30.34,North,360,3.0,15.0,44,0.00,,,0.00,VWS V14.01,2013-04-21 08:41:00,
2013-04-21 04:44:00,39.6,19.5,30.34,NNE,16,9.0,15.0,44,0.00,,,0.00,VWS V14.01,2013-04-21 08:44:00,
2013-04-21 04:45:00,39.6,19.5,30.34,North,355,5.0,15.0,44,0.00,,,0.00,VWS V14.01,2013-04-21 08:45:00,
2013-04-21 04:46:00,39.6,19.5,30.34,NNW,337,5.0,15.0,44,0.00,,,0.00,VWS V14.01,2013-04-21 08:46:00,
2013-04-21 04:47:00,39.6,20.0,30.34,NNE,12,3.0,15.0,45,0.00,,,0.00,VWS V14.01,2013-04-21 08:47:00,
2013-04-21 04:48:00,39.6,19.5,30.35,NNE,12,0.0,15.0,44,0.00,,,0.00,VWS V14.01,2013-04-21 08:48:00,
2013-04-21 04:50:00,39.5,19.9,30.35,NE,46,6.0,15.0,45,0.00,,,0.00,VWS V14.01,2013-04-21 08:50:00,
2013-04-21 04:51:00,39.5,19.9,30.35,North,360,7.0,15.0,45,0.00,,,0.00,VWS V14.01,2013-04-21 08:51:00,
2013-04-21 04:53:00,39.3,20.3,30.35,NNW,333,5.0,15.0,46,0.00,,,0.00,VWS V14.01,2013-04-21 08:53:00,
2013-04-21 04:55:00,39.3,20.3,30.35,NNW,343,3.0,15.0,46,0.00,,,0.00,VWS V14.01,2013-04-21 08:55:00,
2013-04-21 04:56:00,39.3,20.3,30.35,NNW,336,7.0,15.0,46,0.00,,,0.00,VWS V14.01,2013-04-21 08:56:00,
2013-04-21 04:58:00,39.2,20.2,30.35,North,351,4.0,15.0,46,0.00,,,0.00,VWS V14.01,2013-04-21 08:58:00,
2013-04-21 05:01:00,39.2,19.7,30.35,NNW,336,7.0,18.0,45,0.00,,,0.00,VWS V14.01,2013-04-21 09:01:00,
2013-04-21 05:02:00,39.2,20.2,30.35,NNE,13,2.0,18.0,46,0.00,,,0.00,VWS V14.01,2013-04-21 09:02:00,
2013-04-21 05:03:00,39.2,20.2,30.36,NNW,336,12.0,18.0,46,0.00,,,0.00,VWS V14.01,2013-04-21 09:03:00,
2013-04-21 05:04:00,39.2,19.7,30.36,North,5,10.0,18.0,45,0.00,,,0.00,VWS V14.01,2013-04-21 09:04:00,
2013-04-21 05:06:00,39.2,20.2,30.36,NE,39,5.0,17.0,46,0.00,,,0.00,VWS V14.01,2013-04-21 09:06:00,
2013-04-21 05:08:00,39.2,19.7,30.36,North,5,6.0,17.0,45,0.00,,,0.00,VWS V14.01,2013-04-21 09:08:00,
2013-04-21 05:10:00,39.1,20.1,30.36,North,355,9.0,17.0,46,0.00,,,0.00,VWS V14.01,2013-04-21 09:10:00,
2013-04-21 05:11:00,39.1,20.1,30.36,NNE,26,4.0,17.0,46,0.00,,,0.00,VWS V14.01,2013-04-21 09:11:00,
2013-04-21 05:13:00,39.1,20.1,30.36,North,5,6.0,17.0,46,0.00,,,0.00,VWS V14.01,2013-04-21 09:13:00,
2013-04-21 05:15:00,39.1,20.1,30.36,North,11,11.0,17.0,46,0.00,,,0.00,VWS V14.01,2013-04-21 09:15:00,
2013-04-21 05:16:00,38.9,19.9,30.36,NNW,346,11.0,17.0,46,0.00,,,0.00,VWS V14.01,2013-04-21 09:16:00,
2013-04-21 05:19:00,38.9,20.4,30.37,NNE,16,10.0,17.0,47,0.00,,,0.00,VWS V14.01,2013-04-21 09:19:00,
2013-04-21 05:20:00,38.9,20.4,30.37,NNW,334,7.0,17.0,47,0.00,,,0.00,VWS V14.01,2013-04-21 09:20:00,
2013-04-21 05:21:00,38.9,20.4,30.37,North,355,7.0,17.0,47,0.00,,,0.00,VWS V14.01,2013-04-21 09:21:00,
2013-04-21 05:22:00,38.9,20.4,30.37,NNE,13,7.0,17.0,47,0.00,,,0.00,VWS V14.01,2013-04-21 09:22:00,
2013-04-21 05:24:00,38.9,20.4,30.37,NNE,24,1.0,17.0,47,0.00,,,0.00,VWS V14.01,2013-04-21 09:24:00,
2013-04-21 05:26:00,38.9,20.4,30.37,North,9,4.0,17.0,47,0.00,,,0.00,VWS V14.01,2013-04-21 09:26:00,
2013-04-21 05:27:00,38.9,20.4,30.37,NW,319,2.0,17.0,47,0.00,,,0.00,VWS V14.01,2013-04-21 09:27:00,
2013-04-21 05:29:00,38.8,20.3,30.37,NNE,25,7.0,17.0,47,0.00,,,0.00,VWS V14.01,2013-04-21 09:29:00,
2013-04-21 05:30:00,38.8,20.8,30.37,NNW,330,5.0,17.0,48,0.00,,,0.00,VWS V14.01,2013-04-21 09:30:00,
2013-04-21 05:32:00,38.8,20.8,30.37,NNW,331,10.0,17.0,48,0.00,,,0.00,VWS V14.01,2013-04-21 09:32:00,
2013-04-21 05:34:00,38.8,20.8,30.37,NE,50,2.0,6.0,48,0.00,,,0.00,VWS V14.01,2013-04-21 09:34:00,
2013-04-21 05:35:00,38.8,21.3,30.37,North,355,9.0,9.0,49,0.00,,,0.00,VWS V14.01,2013-04-21 09:35:00,
2013-04-21 05:36:00,38.8,20.8,30.37,NNW,329,13.0,19.0,48,0.00,,,0.00,VWS V14.01,2013-04-21 09:36:00,
2013-04-21 05:37:00,38.8,20.8,30.37,NNW,344,8.0,19.0,48,0.00,,,0.00,VWS V14.01,2013-04-21 09:37:00,
2013-04-21 05:39:00,38.8,20.8,30.37,North,5,9.0,19.0,48,0.00,,,0.00,VWS V14.01,2013-04-21 09:39:00,
2013-04-21 05:41:00,38.6,21.1,30.37,NE,36,6.0,19.0,49,0.00,,,0.00,VWS V14.01,2013-04-21 09:41:00,
2013-04-21 05:42:00,38.6,21.1,30.37,NW,320,4.0,19.0,49,0.00,,,0.00,VWS V14.01,2013-04-21 09:42:00,
2013-04-21 05:43:00,38.6,21.1,30.37,NW,304,0.0,19.0,49,0.00,,,0.00,VWS V14.01,2013-04-21 09:43:00,
2013-04-21 05:45:00,38.6,21.1,30.37,NNE,23,7.0,19.0,49,0.00,,,0.00,VWS V14.01,2013-04-21 09:45:00,
2013-04-21 05:48:00,38.6,21.1,30.39,North,350,6.0,19.0,49,0.00,,,0.00,VWS V14.01,2013-04-21 09:48:00,
2013-04-21 05:49:00,38.6,21.1,30.39,North,360,4.0,19.0,49,0.00,,,0.00,VWS V14.01,2013-04-21 09:49:00,
2013-04-21 05:51:00,38.5,21.5,30.39,NNW,335,7.0,19.0,50,0.00,,,0.00,VWS V14.01,2013-04-21 09:51:00,
2013-04-21 05:54:00,38.5,21.5,30.39,NW,324,5.0,19.0,50,0.00,,,0.00,VWS V14.01,2013-04-21 09:54:00,
2013-04-21 05:56:00,38.5,21.5,30.39,North,355,7.0,19.0,50,0.00,,,0.00,VWS V14.01,2013-04-21 09:56:00,
2013-04-21 05:57:00,38.5,21.5,30.39,North,10,4.0,19.0,50,0.00,,,0.00,VWS V14.01,2013-04-21 09:57:00,
2013-04-21 05:58:00,38.5,21.5,30.39,North,350,13.0,19.0,50,0.00,,,0.00,VWS V14.01,2013-04-21 09:58:00,
2013-04-21 05:59:00,38.5,21.5,30.39,NNW,338,12.0,19.0,50,0.00,,,0.00,VWS V14.01,2013-04-21 09:59:00,
2013-04-21 06:01:00,38.3,21.3,30.39,North,360,8.0,19.0,50,0.00,,,0.00,VWS V14.01,2013-04-21 10:01:00,
2013-04-21 06:03:00,38.3,21.8,30.39,NNW,338,11.0,19.0,51,0.00,,,0.00,VWS V14.01,2013-04-21 10:03:00,
2013-04-21 06:04:00,38.3,21.8,30.39,NNE,26,7.0,19.0,51,0.00,,,0.00,VWS V14.01,2013-04-21 10:04:00,
2013-04-21 06:05:00,38.3,21.3,30.39,North,350,12.0,13.0,50,0.00,,,0.00,VWS V14.01,2013-04-21 10:05:00,
2013-04-21 06:08:00,38.3,21.3,30.39,North,11,3.0,14.0,50,0.00,,,0.00,VWS V14.01,2013-04-21 10:08:00,
2013-04-21 06:10:00,38.3,21.8,30.39,NNW,332,6.0,14.0,51,0.00,,,0.00,VWS V14.01,2013-04-21 10:10:00,
2013-04-21 06:11:00,38.3,21.8,30.39,NNW,328,5.0,14.0,51,0.00,,,0.00,VWS V14.01,2013-04-21 10:11:00,
2013-04-21 06:13:00,38.3,21.8,30.39,North,5,7.0,14.0,51,0.00,,,0.00,VWS V14.01,2013-04-21 10:13:00,
2013-04-21 06:15:00,38.3,21.8,30.39,North,351,5.0,14.0,51,0.00,,,0.00,VWS V14.01,2013-04-21 10:15:00,
2013-04-21 06:18:00,38.3,21.8,30.41,North,5,7.0,14.0,51,0.00,,,0.00,VWS V14.01,2013-04-21 10:18:00,
2013-04-21 06:19:00,38.3,21.8,30.41,NNW,330,6.0,14.0,51,0.00,,,0.00,VWS V14.01,2013-04-21 10:19:00,
2013-04-21 06:20:00,38.3,21.8,30.41,NNW,345,5.0,14.0,51,0.00,,,0.00,VWS V14.01,2013-04-21 10:20:00,
2013-04-21 06:23:00,38.3,21.8,30.41,NNW,346,12.0,14.0,51,0.00,,,0.00,VWS V14.01,2013-04-21 10:23:00,
2013-04-21 06:26:00,38.2,21.7,30.41,NNE,26,4.0,14.0,51,0.00,,,0.00,VWS V14.01,2013-04-21 10:26:00,
2013-04-21 06:27:00,38.2,21.7,30.41,North,360,5.0,14.0,51,0.00,,,0.00,VWS V14.01,2013-04-21 10:27:00,
2013-04-21 06:28:00,38.2,22.1,30.41,NNE,12,7.0,14.0,52,0.00,,,0.00,VWS V14.01,2013-04-21 10:28:00,
2013-04-21 06:29:00,38.2,22.1,30.41,NNW,342,9.0,14.0,52,0.00,,,0.00,VWS V14.01,2013-04-21 10:29:00,
2013-04-21 06:33:00,38.2,22.1,30.41,North,355,5.0,14.0,52,0.00,,,0.00,VWS V14.01,2013-04-21 10:33:00,
2013-04-21 06:34:00,38.2,22.1,30.42,NNW,340,9.0,14.0,52,0.00,,,0.00,VWS V14.01,2013-04-21 10:34:00,
2013-04-21 06:37:00,38.2,22.1,30.42,NNE,17,6.0,11.0,52,0.00,,,0.00,VWS V14.01,2013-04-21 10:37:00,
2013-04-21 06:40:00,38.2,21.7,30.42,NE,34,6.0,12.0,51,0.00,,,0.00,VWS V14.01,2013-04-21 10:40:00,
2013-04-21 06:41:00,38.2,22.1,30.42,North,360,6.0,12.0,52,0.00,,,0.00,VWS V14.01,2013-04-21 10:41:00,
2013-04-21 06:44:00,38.2,22.1,30.42,North,10,3.0,12.0,52,0.00,,,0.00,VWS V14.01,2013-04-21 10:44:00,
2013-04-21 06:45:00,38.2,21.7,30.42,NNW,332,9.0,12.0,51,0.00,,,0.00,VWS V14.01,2013-04-21 10:45:00,
2013-04-21 06:46:00,38.2,22.1,30.42,NNE,25,6.0,12.0,52,0.00,,,0.00,VWS V14.01,2013-04-21 10:46:00,
2013-04-21 06:48:00,38.3,21.8,30.42,NNW,348,8.0,12.0,51,0.00,,,0.00,VWS V14.01,2013-04-21 10:48:00,
2013-04-21 06:49:00,38.3,21.8,30.42,NNW,338,6.0,12.0,51,0.00,,,0.00,VWS V14.01,2013-04-21 10:49:00,
2013-04-21 06:51:00,38.3,21.8,30.42,North,355,9.0,12.0,51,0.00,,,0.00,VWS V14.01,2013-04-21 10:51:00,
2013-04-21 06:53:00,38.5,22.0,30.42,North,355,5.0,15.0,51,0.00,,,0.00,VWS V14.01,2013-04-21 10:53:00,
2013-04-21 06:54:00,38.5,22.0,30.42,North,360,10.0,15.0,51,0.00,,,0.00,VWS V14.01,2013-04-21 10:54:00,
2013-04-21 06:55:00,38.5,22.0,30.42,North,9,7.0,15.0,51,0.00,,,0.00,VWS V14.01,2013-04-21 10:55:00,
2013-04-21 06:56:00,38.5,21.5,30.42,North,10,7.0,15.0,50,0.00,,,0.00,VWS V14.01,2013-04-21 10:56:00,
2013-04-21 06:59:00,38.6,21.6,30.42,NNW,327,14.0,15.0,50,0.00,,,0.00,VWS V14.01,2013-04-21 10:59:00,
2013-04-21 07:01:00,38.8,21.8,30.42,North,355,11.0,15.0,50,0.00,,,0.00,VWS V14.01,2013-04-21 11:01:00,
2013-04-21 07:03:00,38.9,21.9,30.42,NNW,334,11.0,15.0,50,0.00,,,0.00,VWS V14.01,2013-04-21 11:03:00,
2013-04-21 07:05:00,38.9,21.9,30.44,North,360,4.0,10.0,50,0.00,,,0.00,VWS V14.01,2013-04-21 11:05:00,
2013-04-21 07:07:00,39.1,22.0,30.44,North,11,5.0,10.0,50,0.00,,,0.00,VWS V14.01,2013-04-21 11:07:00,
2013-04-21 07:08:00,39.1,22.0,30.44,NNW,348,11.0,12.0,50,0.00,,,0.00,VWS V14.01,2013-04-21 11:08:00,
2013-04-21 07:12:00,39.2,21.7,30.44,North,360,2.0,12.0,49,0.00,,,0.00,VWS V14.01,2013-04-21 11:12:00,
2013-04-21 07:13:00,39.3,21.8,30.44,NW,325,3.0,12.0,49,0.00,,,0.00,VWS V14.01,2013-04-21 11:13:00,
2013-04-21 07:14:00,39.3,21.8,30.44,NNW,333,3.0,12.0,49,0.00,,,0.00,VWS V14.01,2013-04-21 11:14:00,
2013-04-21 07:18:00,39.6,22.0,30.44,NNW,327,5.0,12.0,49,0.00,,,0.00,VWS V14.01,2013-04-21 11:18:00,
2013-04-21 07:19:00,39.6,22.0,30.45,North,355,8.0,12.0,49,0.00,,,0.00,VWS V14.01,2013-04-21 11:19:00,
2013-04-21 07:20:00,39.6,21.5,30.45,North,355,7.0,12.0,48,0.00,,,0.00,VWS V14.01,2013-04-21 11:20:00,
2013-04-21 07:23:00,39.9,21.8,30.45,North,5,13.0,13.0,48,0.00,,,0.00,VWS V14.01,2013-04-21 11:23:00,
2013-04-21 07:24:00,40.1,22.5,30.45,NNE,19,6.0,13.0,49,0.00,,,0.00,VWS V14.01,2013-04-21 11:24:00,
2013-04-21 07:25:00,40.1,22.0,30.45,NNW,338,6.0,13.0,48,0.00,,,0.00,VWS V14.01,2013-04-21 11:25:00,
2013-04-21 07:28:00,40.2,22.1,30.45,NNE,12,5.0,13.0,48,0.00,,,0.00,VWS V14.01,2013-04-21 11:28:00,
2013-04-21 07:29:00,40.3,22.2,30.45,North,355,9.0,13.0,48,0.00,,,0.00,VWS V14.01,2013-04-21 11:29:00,
2013-04-21 07:32:00,40.5,22.4,30.45,North,11,7.0,14.0,48,0.00,,,0.00,VWS V14.01,2013-04-21 11:32:00,
2013-04-21 07:33:00,40.5,22.4,30.45,North,10,2.0,14.0,48,0.00,,,0.00,VWS V14.01,2013-04-21 11:33:00,
2013-04-21 07:34:00,40.6,22.5,30.45,NE,43,0.0,14.0,48,0.00,,,0.00,VWS V14.01,2013-04-21 11:34:00,
2013-04-21 07:37:00,40.8,22.1,30.45,NNW,339,7.0,8.0,47,0.00,,,0.00,VWS V14.01,2013-04-21 11:37:00,
2013-04-21 07:40:00,41.1,22.9,30.45,North,360,9.0,11.0,48,0.00,,,0.00,VWS V14.01,2013-04-21 11:40:00,
2013-04-21 07:41:00,41.1,22.9,30.45,NNE,16,10.0,11.0,48,0.00,,,0.00,VWS V14.01,2013-04-21 11:41:00,
2013-04-21 07:42:00,41.2,22.5,30.45,NNE,24,5.0,11.0,47,0.00,,,0.00,VWS V14.01,2013-04-21 11:42:00,
2013-04-21 07:45:00,41.3,22.6,30.45,NNE,17,5.0,13.0,47,0.00,,,0.00,VWS V14.01,2013-04-21 11:45:00,
2013-04-21 07:47:00,41.3,22.6,30.45,NW,325,5.0,13.0,47,0.00,,,0.00,VWS V14.01,2013-04-21 11:47:00,
2013-04-21 07:48:00,41.5,22.8,30.45,NE,38,9.0,13.0,47,0.00,,,0.00,VWS V14.01,2013-04-21 11:48:00,
2013-04-21 07:50:00,41.5,22.8,30.46,NNE,20,8.0,13.0,47,0.00,,,0.00,VWS V14.01,2013-04-21 11:50:00,
2013-04-21 07:52:00,41.6,22.9,30.46,NNE,15,8.0,13.0,47,0.00,,,0.00,VWS V14.01,2013-04-21 11:52:00,
2013-04-21 07:53:00,41.6,22.9,30.46,NNE,14,9.0,14.0,47,0.00,,,0.00,VWS V14.01,2013-04-21 11:53:00,
2013-04-21 07:54:00,41.6,22.9,30.46,NNE,17,5.0,14.0,47,0.00,,,0.00,VWS V14.01,2013-04-21 11:54:00,
2013-04-21 07:57:00,41.8,23.1,30.46,NE,34,6.0,14.0,47,0.00,,,0.00,VWS V14.01,2013-04-21 11:57:00,
2013-04-21 07:58:00,41.9,23.2,30.46,NE,35,8.0,14.0,47,0.00,,,0.00,VWS V14.01,2013-04-21 11:58:00,
2013-04-21 07:59:00,41.9,23.2,30.46,North,5,5.0,14.0,47,0.00,,,0.00,VWS V14.01,2013-04-21 11:59:00,
2013-04-21 08:00:00,41.9,22.6,30.46,NE,53,8.0,14.0,46,0.00,,,0.00,VWS V14.01,2013-04-21 12:00:00,
2013-04-21 08:03:00,42.1,22.8,30.46,North,351,7.0,14.0,46,0.00,,,0.00,VWS V14.01,2013-04-21 12:03:00,
2013-04-21 08:04:00,42.1,22.3,30.46,NNE,30,9.0,14.0,45,0.00,,,0.00,VWS V14.01,2013-04-21 12:04:00,
2013-04-21 08:05:00,42.1,22.8,30.46,North,11,12.0,14.0,46,0.00,,,0.00,VWS V14.01,2013-04-21 12:05:00,
2013-04-21 08:06:00,42.1,22.8,30.46,NNE,21,6.0,14.0,46,0.00,,,0.00,VWS V14.01,2013-04-21 12:06:00,
2013-04-21 08:10:00,42.2,22.9,30.46,NNE,15,8.0,16.0,46,0.00,,,0.00,VWS V14.01,2013-04-21 12:10:00,
2013-04-21 08:11:00,42.3,22.5,30.46,NNE,22,5.0,17.0,45,0.00,,,0.00,VWS V14.01,2013-04-21 12:11:00,
2013-04-21 08:12:00,42.3,23.0,30.46,NNE,24,4.0,17.0,46,0.00,,,0.00,VWS V14.01,2013-04-21 12:12:00,
2013-04-21 08:16:00,42.6,23.3,30.46,NNE,15,11.0,17.0,46,0.00,,,0.00,VWS V14.01,2013-04-21 12:16:00,
2013-04-21 08:17:00,42.6,23.3,30.46,NNE,17,8.0,17.0,46,0.00,,,0.00,VWS V14.01,2013-04-21 12:17:00,
2013-04-21 08:21:00,42.8,24.0,30.47,NNW,347,5.0,17.0,47,0.00,,,0.00,VWS V14.01,2013-04-21 12:21:00,
2013-04-21 08:22:00,42.9,24.1,30.47,NW,320,5.0,17.0,47,0.00,,,0.00,VWS V14.01,2013-04-21 12:22:00,
2013-04-21 08:23:00,42.9,23.0,30.47,NE,34,8.0,17.0,45,0.00,,,0.00,VWS V14.01,2013-04-21 12:23:00,
2013-04-21 08:25:00,43.2,23.8,30.47,NNE,24,2.0,17.0,46,0.00,,,0.00,VWS V14.01,2013-04-21 12:25:00,
2013-04-21 08:28:00,43.5,23.6,30.47,NNE,30,8.0,17.0,45,0.00,,,0.00,VWS V14.01,2013-04-21 12:28:00,
2013-04-21 08:30:00,43.8,23.3,30.47,NNE,26,6.0,17.0,44,0.00,,,0.00,VWS V14.01,2013-04-21 12:30:00,
2013-04-21 08:31:00,43.8,23.3,30.47,NNW,348,6.0,17.0,44,0.00,,,0.00,VWS V14.01,2013-04-21 12:31:00,
2013-04-21 08:32:00,43.6,22.0,30.47,NNE,26,12.0,17.0,42,0.00,,,0.00,VWS V14.01,2013-04-21 12:32:00,
2013-04-21 08:36:00,43.5,23.0,30.48,ENE,58,6.0,14.0,44,0.00,,,0.00,VWS V14.01,2013-04-21 12:36:00,
2013-04-21 08:38:00,43.5,23.0,30.48,NNE,23,8.0,15.0,44,0.00,,,0.00,VWS V14.01,2013-04-21 12:38:00,
2013-04-21 08:39:00,43.3,22.3,30.48,North,355,2.0,15.0,43,0.00,,,0.00,VWS V14.01,2013-04-21 12:39:00,
2013-04-21 08:40:00,43.5,23.6,30.48,NNE,22,12.0,15.0,45,0.00,,,0.00,VWS V14.01,2013-04-21 12:40:00,
2013-04-21 08:43:00,43.9,23.4,30.48,NNW,343,10.0,15.0,44,0.00,,,0.00,VWS V14.01,2013-04-21 12:43:00,
2013-04-21 08:45:00,43.9,23.4,30.48,NE,55,7.0,15.0,44,0.00,,,0.00,VWS V14.01,2013-04-21 12:45:00,
2013-04-21 08:49:00,44.1,23.6,30.48,NNE,24,11.0,15.0,44,0.00,,,0.00,VWS V14.01,2013-04-21 12:49:00,
2013-04-21 08:50:00,44.1,24.1,30.48,NNW,331,14.0,20.0,45,0.00,,,0.00,VWS V14.01,2013-04-21 12:50:00,
2013-04-21 08:51:00,43.9,24.0,30.48,NNW,344,7.0,20.0,45,0.00,,,0.00,VWS V14.01,2013-04-21 12:51:00,
2013-04-21 08:53:00,43.9,23.4,30.48,NNW,340,10.0,20.0,44,0.00,,,0.00,VWS V14.01,2013-04-21 12:53:00,
2013-04-21 08:55:00,43.8,23.9,30.48,NNW,335,3.0,20.0,45,0.00,,,0.00,VWS V14.01,2013-04-21 12:55:00,
2013-04-21 08:56:00,43.8,23.9,30.48,NE,36,3.0,20.0,45,0.00,,,0.00,VWS V14.01,2013-04-21 12:56:00,
2013-04-21 08:57:00,43.9,24.0,30.48,North,355,9.0,20.0,45,0.00,,,0.00,VWS V14.01,2013-04-21 12:57:00,
2013-04-21 09:00:00,44.1,24.1,30.48,North,9,3.0,20.0,45,0.00,,,0.00,VWS V14.01,2013-04-21 13:00:00,
2013-04-21 09:02:00,44.2,23.7,30.48,NNW,344,8.0,20.0,44,0.00,,,0.00,VWS V14.01,2013-04-21 13:02:00,
2013-04-21 09:04:00,44.2,23.1,30.48,North,351,11.0,20.0,43,0.00,,,0.00,VWS V14.01,2013-04-21 13:04:00,
2013-04-21 09:05:00,44.1,23.6,30.48,North,5,12.0,16.0,44,0.00,,,0.00,VWS V14.01,2013-04-21 13:05:00,
2013-04-21 09:07:00,44.1,24.1,30.48,NNE,27,10.0,16.0,45,0.00,,,0.00,VWS V14.01,2013-04-21 13:07:00,
2013-04-21 09:11:00,44.1,25.7,30.48,North,10,5.0,16.0,48,0.00,,,0.00,VWS V14.01,2013-04-21 13:11:00,
2013-04-21 09:13:00,44.3,24.3,30.48,NNE,13,10.0,16.0,45,0.00,,,0.00,VWS V14.01,2013-04-21 13:13:00,
2013-04-21 09:15:00,44.6,24.0,30.48,NE,46,7.0,16.0,44,0.00,,,0.00,VWS V14.01,2013-04-21 13:15:00,
2013-04-21 09:16:00,44.8,23.1,30.48,NNE,30,11.0,16.0,42,0.00,,,0.00,VWS V14.01,2013-04-21 13:16:00,
2013-04-21 09:18:00,45.1,24.0,30.49,NE,53,13.0,16.0,43,0.00,,,0.00,VWS V14.01,2013-04-21 13:18:00,
2013-04-21 09:20:00,45.1,23.4,30.49,NNE,30,7.0,16.0,42,0.00,,,0.00,VWS V14.01,2013-04-21 13:20:00,
2013-04-21 09:21:00,44.9,23.2,30.49,NE,45,13.0,16.0,42,0.00,,,0.00,VWS V14.01,2013-04-21 13:21:00,
2013-04-21 09:23:00,44.9,23.2,30.49,NNE,26,9.0,16.0,42,0.00,,,0.00,VWS V14.01,2013-04-21 13:23:00,
2013-04-21 09:25:00,44.9,22.6,30.49,North,350,12.0,16.0,41,0.00,,,0.00,VWS V14.01,2013-04-21 13:25:00,
2013-04-21 09:27:00,45.1,23.4,30.49,North,355,8.0,16.0,42,0.00,,,0.00,VWS V14.01,2013-04-21 13:27:00,
2013-04-21 09:29:00,45.1,24.0,30.49,NNE,12,9.0,16.0,43,0.00,,,0.00,VWS V14.01,2013-04-21 13:29:00,
2013-04-21 09:30:00,45.1,23.4,30.49,NNE,26,2.0,16.0,42,0.00,,,0.00,VWS V14.01,2013-04-21 13:30:00,
2013-04-21 09:31:00,45.1,23.4,30.49,NNE,26,0.0,16.0,42,0.00,,,0.00,VWS V14.01,2013-04-21 13:31:00,
2013-04-21 09:32:00,45.4,24.2,30.49,NE,38,4.0,16.0,43,0.00,,,0.00,VWS V14.01,2013-04-21 13:32:00,
2013-04-21 09:34:00,45.7,22.8,30.50,NE,37,3.0,16.0,40,0.00,,,0.00,VWS V14.01,2013-04-21 13:34:00,
2013-04-21 09:36:00,45.8,22.9,30.50,North,351,7.0,12.0,40,0.00,,,0.00,VWS V14.01,2013-04-21 13:36:00,
2013-04-21 09:37:00,45.8,23.5,30.50,NNW,340,12.0,14.0,41,0.00,,,0.00,VWS V14.01,2013-04-21 13:37:00,
2013-04-21 09:41:00,45.4,24.2,30.50,NE,50,7.0,14.0,43,0.00,,,0.00,VWS V14.01,2013-04-21 13:41:00,
2013-04-21 09:42:00,45.4,23.1,30.50,NNE,31,6.0,14.0,41,0.00,,,0.00,VWS V14.01,2013-04-21 13:42:00,
2013-04-21 09:43:00,45.4,24.8,30.50,NNE,32,10.0,14.0,44,0.00,,,0.00,VWS V14.01,2013-04-21 13:43:00,
2013-04-21 09:44:00,45.4,25.3,30.50,North,11,5.0,14.0,45,0.00,,,0.00,VWS V14.01,2013-04-21 13:44:00,
2013-04-21 09:46:00,45.4,24.8,30.50,NNE,14,8.0,14.0,44,0.00,,,0.00,VWS V14.01,2013-04-21 13:46:00,
2013-04-21 09:49:00,45.5,24.9,30.50,NNE,23,3.0,14.0,44,0.00,,,0.00,VWS V14.01,2013-04-21 13:49:00,
2013-04-21 09:51:00,45.5,23.2,30.50,NNW,336,7.0,14.0,41,0.00,,,0.00,VWS V14.01,2013-04-21 13:51:00,
2013-04-21 09:52:00,45.4,22.5,30.50,NNW,331,4.0,14.0,40,0.00,,,0.00,VWS V14.01,2013-04-21 13:52:00,
2013-04-21 09:55:00,45.8,24.6,30.50,NNE,16,6.0,14.0,43,0.00,,,0.00,VWS V14.01,2013-04-21 13:55:00,
2013-04-21 09:56:00,46.1,25.4,30.50,NE,40,6.0,14.0,44,0.00,,,0.00,VWS V14.01,2013-04-21 13:56:00,
2013-04-21 09:57:00,46.2,26.0,30.50,NE,39,6.0,14.0,45,0.00,,,0.00,VWS V14.01,2013-04-21 13:57:00,
2013-04-21 09:58:00,46.2,25.5,30.50,NE,38,7.0,14.0,44,0.00,,,0.00,VWS V14.01,2013-04-21 13:58:00,
2013-04-21 10:00:00,46.1,24.9,30.50,NNE,18,14.0,14.0,43,0.00,,,0.00,VWS V14.01,2013-04-21 14:00:00,
2013-04-21 10:02:00,45.8,24.0,30.50,NE,53,4.0,14.0,42,0.00,,,0.00,VWS V14.01,2013-04-21 14:02:00,
2013-04-21 10:05:00,45.7,24.5,30.51,NE,38,14.0,15.0,43,0.00,,,0.00,VWS V14.01,2013-04-21 14:05:00,
2013-04-21 10:06:00,45.5,24.3,30.51,ENE,60,7.0,15.0,43,0.00,,,0.00,VWS V14.01,2013-04-21 14:06:00,
2013-04-21 10:07:00,45.5,25.9,30.51,NE,38,3.0,15.0,46,0.00,,,0.00,VWS V14.01,2013-04-21 14:07:00,
2013-04-21 10:09:00,45.8,24.6,30.51,NE,53,7.0,15.0,43,0.00,,,0.00,VWS V14.01,2013-04-21 14:09:00,
2013-04-21 10:10:00,45.8,25.7,30.51,ENE,64,7.0,15.0,45,0.00,,,0.00,VWS V14.01,2013-04-21 14:10:00,
2013-04-21 10:13:00,45.8,24.6,30.51,ENE,64,11.0,17.0,43,0.00,,,0.00,VWS V14.01,2013-04-21 14:13:00,
2013-04-21 10:14:00,45.7,24.5,30.51,ENE,76,10.0,17.0,43,0.00,,,0.00,VWS V14.01,2013-04-21 14:14:00,
2013-04-21 10:15:00,45.8,25.7,30.51,ENE,74,5.0,17.0,45,0.00,,,0.00,VWS V14.01,2013-04-21 14:15:00,
2013-04-21 10:17:00,45.8,25.1,30.51,East,80,11.0,17.0,44,0.00,,,0.00,VWS V14.01,2013-04-21 14:17:00,
2013-04-21 10:18:00,45.7,24.5,30.51,ENE,58,4.0,17.0,43,0.00,,,0.00,VWS V14.01,2013-04-21 14:18:00,
2013-04-21 10:20:00,46.1,27.0,30.51,ENE,58,4.0,17.0,47,0.00,,,0.00,VWS V14.01,2013-04-21 14:20:00,
2013-04-21 10:21:00,46.1,25.4,30.51,ENE,74,7.0,17.0,44,0.00,,,0.00,VWS V14.01,2013-04-21 14:21:00,
2013-04-21 10:22:00,46.4,25.7,30.51,NNE,16,7.0,17.0,44,0.00,,,0.00,VWS V14.01,2013-04-21 14:22:00,
2013-04-21 10:24:00,46.5,26.3,30.51,ENE,71,6.0,17.0,45,0.00,,,0.00,VWS V14.01,2013-04-21 14:24:00,
2013-04-21 10:25:00,46.5,25.2,30.51,ENE,74,6.0,17.0,43,0.00,,,0.00,VWS V14.01,2013-04-21 14:25:00,
2013-04-21 10:26:00,46.7,25.4,30.51,ENE,61,10.0,17.0,43,0.00,,,0.00,VWS V14.01,2013-04-21 14:26:00,
2013-04-21 10:27:00,46.5,25.8,30.51,East,82,7.0,17.0,44,0.00,,,0.00,VWS V14.01,2013-04-21 14:27:00,
2013-04-21 10:28:00,46.5,25.8,30.51,NNE,30,12.0,17.0,44,0.00,,,0.00,VWS V14.01,2013-04-21 14:28:00,
2013-04-21 10:30:00,46.4,25.7,30.51,ENE,62,3.0,17.0,44,0.00,,,0.00,VWS V14.01,2013-04-21 14:30:00,
2013-04-21 10:31:00,46.5,25.2,30.51,NE,44,2.0,17.0,43,0.00,,,0.00,VWS V14.01,2013-04-21 14:31:00,
2013-04-21 10:32:00,46.7,26.5,30.51,NNE,32,9.0,17.0,45,0.00,,,0.00,VWS V14.01,2013-04-21 14:32:00,
2013-04-21 10:33:00,46.7,26.0,30.52,ENE,71,10.0,17.0,44,0.00,,,0.00,VWS V14.01,2013-04-21 14:33:00,
2013-04-21 10:36:00,46.7,26.0,30.52,ESE,103,11.0,11.0,44,0.00,,,0.00,VWS V14.01,2013-04-21 14:36:00,
2013-04-21 10:38:00,46.4,25.1,30.52,ENE,71,11.0,13.0,43,0.00,,,0.00,VWS V14.01,2013-04-21 14:38:00,
2013-04-21 10:40:00,46.4,26.8,30.52,NE,42,5.0,13.0,46,0.00,,,0.00,VWS V14.01,2013-04-21 14:40:00,
2013-04-21 10:41:00,46.4,26.2,30.52,ENE,68,12.0,13.0,45,0.00,,,0.00,VWS V14.01,2013-04-21 14:41:00,
2013-04-21 10:43:00,46.7,27.0,30.52,NE,44,9.0,13.0,46,0.00,,,0.00,VWS V14.01,2013-04-21 14:43:00,
2013-04-21 10:45:00,46.7,25.4,30.52,NE,55,4.0,13.0,43,0.00,,,0.00,VWS V14.01,2013-04-21 14:45:00,
2013-04-21 10:47:00,46.4,25.1,30.52,NNE,33,11.0,16.0,43,0.00,,,0.00,VWS V14.01,2013-04-21 14:47:00,
2013-04-21 10:48:00,46.1,24.9,30.52,ENE,57,6.0,16.0,43,0.00,,,0.00,VWS V14.01,2013-04-21 14:48:00,
2013-04-21 10:49:00,46.1,25.4,30.52,NE,42,3.0,16.0,44,0.00,,,0.00,VWS V14.01,2013-04-21 14:49:00,
2013-04-21 10:53:00,46.0,25.3,30.52,NE,39,8.0,16.0,44,0.00,,,0.00,VWS V14.01,2013-04-21 14:53:00,
2013-04-21 10:54:00,46.1,26.0,30.52,ENE,57,4.0,16.0,45,0.00,,,0.00,VWS V14.01,2013-04-21 14:54:00,
2013-04-21 10:56:00,46.5,26.9,30.52,ENE,61,8.0,16.0,46,0.00,,,0.00,VWS V14.01,2013-04-21 14:56:00,
2013-04-21 10:57:00,46.7,26.0,30.52,NE,53,8.0,16.0,44,0.00,,,0.00,VWS V14.01,2013-04-21 14:57:00,
2013-04-21 11:00:00,46.2,26.0,30.52,ENE,59,4.0,16.0,45,0.00,,,0.00,VWS V14.01,2013-04-21 15:00:00,
2013-04-21 11:04:00,47.0,26.8,30.52,ENE,76,5.0,16.0,45,0.00,,,0.00,VWS V14.01,2013-04-21 15:04:00,
2013-04-21 11:05:00,47.4,26.0,30.52,ENE,65,3.0,11.0,43,0.00,,,0.00,VWS V14.01,2013-04-21 15:05:00,
2013-04-21 11:08:00,47.9,25.4,30.52,NE,42,5.0,16.0,41,0.00,,,0.00,VWS V14.01,2013-04-21 15:08:00,
2013-04-21 11:10:00,47.6,26.8,30.52,NNE,15,12.0,16.0,44,0.00,,,0.00,VWS V14.01,2013-04-21 15:10:00,
2013-04-21 11:11:00,47.3,25.4,30.52,ENE,57,13.0,17.0,42,0.00,,,0.00,VWS V14.01,2013-04-21 15:11:00,
2013-04-21 11:14:00,46.5,24.7,30.52,East,85,12.0,17.0,42,0.00,,,0.00,VWS V14.01,2013-04-21 15:14:00,
2013-04-21 11:16:00,47.3,26.5,30.52,ENE,69,8.0,17.0,44,0.00,,,0.00,VWS V14.01,2013-04-21 15:16:00,
2013-04-21 11:17:00,47.4,26.0,30.52,NE,52,6.0,17.0,43,0.00,,,0.00,VWS V14.01,2013-04-21 15:17:00,
2013-04-21 11:19:00,47.3,25.4,30.52,ENE,65,5.0,17.0,42,0.00,,,0.00,VWS V14.01,2013-04-21 15:19:00,
2013-04-21 11:21:00,47.4,25.5,30.52,ENE,75,8.0,17.0,42,0.00,,,0.00,VWS V14.01,2013-04-21 15:21:00,
2013-04-21 11:22:00,47.3,26.0,30.52,NE,53,11.0,17.0,43,0.00,,,0.00,VWS V14.01,2013-04-21 15:22:00,
2013-04-21 11:24:00,47.3,26.5,30.52,NE,49,4.0,17.0,44,0.00,,,0.00,VWS V14.01,2013-04-21 15:24:00,
2013-04-21 11:25:00,47.4,26.6,30.52,NE,42,0.0,17.0,44,0.00,,,0.00,VWS V14.01,2013-04-21 15:25:00,
2013-04-21 11:26:00,47.7,28.0,30.52,NE,37,8.0,17.0,46,0.00,,,0.00,VWS V14.01,2013-04-21 15:26:00,
2013-04-21 11:28:00,48.0,26.6,30.52,East,82,11.0,17.0,43,0.00,,,0.00,VWS V14.01,2013-04-21 15:28:00,
2013-04-21 11:29:00,48.0,27.1,30.52,East,82,5.0,17.0,44,0.00,,,0.00,VWS V14.01,2013-04-21 15:29:00,
2013-04-21 11:30:00,48.2,26.8,30.52,ENE,57,4.0,17.0,43,0.00,,,0.00,VWS V14.01,2013-04-21 15:30:00,
2013-04-21 11:31:00,48.2,26.2,30.52,ENE,60,5.0,17.0,42,0.00,,,0.00,VWS V14.01,2013-04-21 15:31:00,
2013-04-21 11:34:00,48.0,26.0,30.53,ENE,57,6.0,17.0,42,0.00,,,0.00,VWS V14.01,2013-04-21 15:34:00,
2013-04-21 11:38:00,48.2,27.3,30.53,NNE,28,10.0,11.0,44,0.00,,,0.00,VWS V14.01,2013-04-21 15:38:00,
2013-04-21 11:39:00,48.2,26.2,30.53,NE,50,4.0,11.0,42,0.00,,,0.00,VWS V14.01,2013-04-21 15:39:00,
2013-04-21 11:41:00,48.3,26.9,30.53,ENE,61,7.0,12.0,43,0.00,,,0.00,VWS V14.01,2013-04-21 15:41:00,
2013-04-21 11:42:00,48.2,26.8,30.53,NE,55,7.0,12.0,43,0.00,,,0.00,VWS V14.01,2013-04-21 15:42:00,
2013-04-21 11:43:00,48.3,28.0,30.53,ENE,59,6.0,12.0,45,0.00,,,0.00,VWS V14.01,2013-04-21 15:43:00,
2013-04-21 11:45:00,48.2,26.8,30.53,ENE,70,7.0,12.0,43,0.00,,,0.00,VWS V14.01,2013-04-21 15:45:00,
2013-04-21 11:47:00,47.6,26.2,30.53,ENE,58,12.0,12.0,43,0.00,,,0.00,VWS V14.01,2013-04-21 15:47:00,
2013-04-21 11:49:00,46.8,24.9,30.52,ENE,58,6.0,12.0,42,0.00,,,0.00,VWS V14.01,2013-04-21 15:49:00,
2013-04-21 11:50:00,46.4,24.6,30.52,ENE,78,8.0,13.0,42,0.00,,,0.00,VWS V14.01,2013-04-21 15:50:00,
2013-04-21 11:51:00,46.2,25.5,30.52,ENE,59,7.0,14.0,44,0.00,,,0.00,VWS V14.01,2013-04-21 15:51:00,
2013-04-21 11:54:00,46.2,27.1,30.52,ENE,71,6.0,14.0,47,0.00,,,0.00,VWS V14.01,2013-04-21 15:54:00,
2013-04-21 11:55:00,46.5,27.9,30.52,ENE,67,5.0,14.0,48,0.00,,,0.00,VWS V14.01,2013-04-21 15:55:00,
2013-04-21 11:57:00,47.3,27.6,30.52,ENE,63,4.0,14.0,46,0.00,,,0.00,VWS V14.01,2013-04-21 15:57:00,
2013-04-21 12:00:00,47.6,26.2,30.52,ENE,59,3.0,14.0,43,0.00,,,0.00,VWS V14.01,2013-04-21 16:00:00,
2013-04-21 12:01:00,48.0,27.7,30.52,ENE,57,3.0,14.0,45,0.00,,,0.00,VWS V14.01,2013-04-21 16:01:00,
2013-04-21 12:03:00,48.3,26.9,30.52,ENE,57,13.0,14.0,43,0.00,,,0.00,VWS V14.01,2013-04-21 16:03:00,
2013-04-21 12:04:00,48.2,26.2,30.52,ENE,69,8.0,14.0,42,0.00,,,0.00,VWS V14.01,2013-04-21 16:04:00,
2013-04-21 12:07:00,47.7,27.4,30.52,East,90,12.0,12.0,45,0.00,,,0.00,VWS V14.01,2013-04-21 16:07:00,
2013-04-21 12:08:00,47.7,26.9,30.52,ENE,67,7.0,12.0,44,0.00,,,0.00,VWS V14.01,2013-04-21 16:08:00,
2013-04-21 12:11:00,47.3,26.5,30.52,ENE,72,11.0,13.0,44,0.00,,,0.00,VWS V14.01,2013-04-21 16:11:00,
2013-04-21 12:12:00,47.3,27.0,30.52,ENE,78,12.0,14.0,45,0.00,,,0.00,VWS V14.01,2013-04-21 16:12:00,
2013-04-21 12:13:00,47.3,26.5,30.52,NE,52,6.0,14.0,44,0.00,,,0.00,VWS V14.01,2013-04-21 16:13:00,
2013-04-21 12:18:00,47.0,26.8,30.52,NE,53,11.0,14.0,45,0.00,,,0.00,VWS V14.01,2013-04-21 16:18:00,
2013-04-21 12:19:00,47.0,26.8,30.52,ENE,63,12.0,14.0,45,0.00,,,0.00,VWS V14.01,2013-04-21 16:19:00,
2013-04-21 12:20:00,47.1,26.9,30.52,NE,53,12.0,14.0,45,0.00,,,0.00,VWS V14.01,2013-04-21 16:20:00,
2013-04-21 12:23:00,47.0,26.2,30.52,NE,54,12.0,14.0,44,0.00,,,0.00,VWS V14.01,2013-04-21 16:23:00,
2013-04-21 12:25:00,46.8,27.6,30.52,NE,47,12.0,14.0,47,0.00,,,0.00,VWS V14.01,2013-04-21 16:25:00,
2013-04-21 12:28:00,47.1,26.9,30.52,ENE,61,11.0,14.0,45,0.00,,,0.00,VWS V14.01,2013-04-21 16:28:00,
2013-04-21 12:29:00,47.4,27.7,30.52,NE,46,6.0,14.0,46,0.00,,,0.00,VWS V14.01,2013-04-21 16:29:00,
2013-04-21 12:31:00,48.0,28.8,30.52,NE,55,8.0,14.0,47,0.00,,,0.00,VWS V14.01,2013-04-21 16:31:00,
2013-04-21 12:32:00,48.2,27.3,30.52,East,80,7.0,14.0,44,0.00,,,0.00,VWS V14.01,2013-04-21 16:32:00,
2013-04-21 12:34:00,48.5,27.6,30.51,NE,55,14.0,14.0,44,0.00,,,0.00,VWS V14.01,2013-04-21 16:34:00,
2013-04-21 12:37:00,48.6,27.7,30.51,NE,51,0.0,12.0,44,0.00,,,0.00,VWS V14.01,2013-04-21 16:37:00,
2013-04-21 12:39:00,49.2,29.3,30.51,NE,48,8.0,14.0,46,0.00,,,0.00,VWS V14.01,2013-04-21 16:39:00,
2013-04-21 12:40:00,49.1,29.2,30.51,ENE,67,8.0,14.0,46,0.00,,,0.00,VWS V14.01,2013-04-21 16:40:00,
2013-04-21 12:42:00,48.8,27.3,30.51,NE,43,10.0,14.0,43,0.00,,,0.00,VWS V14.01,2013-04-21 16:42:00,
2013-04-21 12:46:00,48.6,28.2,30.51,NE,55,4.0,14.0,45,0.00,,,0.00,VWS V14.01,2013-04-21 16:46:00,
2013-04-21 12:47:00,48.5,27.0,30.51,ENE,71,11.0,14.0,43,0.00,,,0.00,VWS V14.01,2013-04-21 16:47:00,
2013-04-21 12:48:00,48.5,27.6,30.51,East,86,5.0,14.0,44,0.00,,,0.00,VWS V14.01,2013-04-21 16:48:00,
2013-04-21 12:50:00,48.2,26.8,30.51,East,80,8.0,15.0,43,0.00,,,0.00,VWS V14.01,2013-04-21 16:50:00,
2013-04-21 12:51:00,48.0,27.1,30.51,ENE,74,11.0,15.0,44,0.00,,,0.00,VWS V14.01,2013-04-21 16:51:00,
2013-04-21 12:54:00,48.3,26.3,30.51,ENE,59,5.0,15.0,42,0.00,,,0.00,VWS V14.01,2013-04-21 16:54:00,
2013-04-21 12:55:00,48.3,26.9,30.51,NE,46,11.0,15.0,43,0.00,,,0.00,VWS V14.01,2013-04-21 16:55:00,
2013-04-21 12:56:00,48.2,26.8,30.51,ENE,72,11.0,15.0,43,0.00,,,0.00,VWS V14.01,2013-04-21 16:56:00,
2013-04-21 13:00:00,48.2,27.3,30.51,East,88,12.0,15.0,44,0.00,,,0.00,VWS V14.01,2013-04-21 17:00:00,
2013-04-21 13:01:00,48.2,27.3,30.51,ENE,78,7.0,15.0,44,0.00,,,0.00,VWS V14.01,2013-04-21 17:01:00,
2013-04-21 13:03:00,48.5,28.1,30.51,NE,35,13.0,15.0,45,0.00,,,0.00,VWS V14.01,2013-04-21 17:03:00,
2013-04-21 13:06:00,48.3,27.4,30.51,East,88,5.0,14.0,44,0.00,,,0.00,VWS V14.01,2013-04-21 17:06:00,
2013-04-21 13:07:00,48.8,28.4,30.51,ENE,62,2.0,14.0,45,0.00,,,0.00,VWS V14.01,2013-04-21 17:07:00,
2013-04-21 13:08:00,49.2,29.3,30.51,ENE,63,15.0,15.0,46,0.00,,,0.00,VWS V14.01,2013-04-21 17:08:00,
2013-04-21 13:09:00,49.4,27.9,30.51,ENE,76,14.0,15.0,43,0.00,,,0.00,VWS V14.01,2013-04-21 17:09:00,
2013-04-21 13:12:00,48.9,26.8,30.51,ENE,70,10.0,15.0,42,0.00,,,0.00,VWS V14.01,2013-04-21 17:12:00,
2013-04-21 13:13:00,48.8,27.3,30.51,ENE,72,8.0,15.0,43,0.00,,,0.00,VWS V14.01,2013-04-21 17:13:00,
2013-04-21 13:14:00,48.6,28.2,30.51,ENE,65,8.0,15.0,45,0.00,,,0.00,VWS V14.01,2013-04-21 17:14:00,
2013-04-21 13:15:00,48.5,27.6,30.51,ENE,58,8.0,15.0,44,0.00,,,0.00,VWS V14.01,2013-04-21 17:15:00,
2013-04-21 13:18:00,48.6,27.1,30.51,East,80,8.0,15.0,43,0.00,,,0.00,VWS V14.01,2013-04-21 17:18:00,
2013-04-21 13:19:00,48.5,27.0,30.51,ENE,67,11.0,15.0,43,0.00,,,0.00,VWS V14.01,2013-04-21 17:19:00,
2013-04-21 13:20:00,48.5,27.0,30.51,ENE,69,12.0,15.0,43,0.00,,,0.00,VWS V14.01,2013-04-21 17:20:00,
2013-04-21 13:23:00,48.6,28.2,30.51,ENE,74,8.0,15.0,45,0.00,,,0.00,VWS V14.01,2013-04-21 17:23:00,
2013-04-21 13:25:00,48.6,27.1,30.51,ENE,71,12.0,15.0,43,0.00,,,0.00,VWS V14.01,2013-04-21 17:25:00,
2013-04-21 13:26:00,48.6,28.2,30.51,ENE,63,14.0,15.0,45,0.00,,,0.00,VWS V14.01,2013-04-21 17:26:00,
2013-04-21 13:30:00,48.2,26.8,30.51,East,86,10.0,15.0,43,0.00,,,0.00,VWS V14.01,2013-04-21 17:30:00,
2013-04-21 13:31:00,48.0,27.7,30.51,ENE,72,7.0,15.0,45,0.00,,,0.00,VWS V14.01,2013-04-21 17:31:00,
2013-04-21 13:34:00,47.4,27.1,30.51,NE,50,7.0,15.0,45,0.00,,,0.00,VWS V14.01,2013-04-21 17:34:00,
2013-04-21 13:35:00,47.6,27.3,30.51,ENE,65,14.0,14.0,45,0.00,,,0.00,VWS V14.01,2013-04-21 17:35:00,
2013-04-21 13:40:00,48.0,26.6,30.51,ENE,59,11.0,17.0,43,0.00,,,0.00,VWS V14.01,2013-04-21 17:40:00,
2013-04-21 13:41:00,48.0,27.7,30.51,NE,49,3.0,17.0,45,0.00,,,0.00,VWS V14.01,2013-04-21 17:41:00,
2013-04-21 13:42:00,47.9,27.6,30.51,NE,53,11.0,17.0,45,0.00,,,0.00,VWS V14.01,2013-04-21 17:42:00,
2013-04-21 13:45:00,47.7,25.8,30.51,ENE,70,11.0,17.0,42,0.00,,,0.00,VWS V14.01,2013-04-21 17:45:00,
2013-04-21 13:46:00,47.9,25.9,30.51,ENE,62,14.0,17.0,42,0.00,,,0.00,VWS V14.01,2013-04-21 17:46:00,
2013-04-21 13:47:00,48.0,26.0,30.51,East,81,11.0,17.0,42,0.00,,,0.00,VWS V14.01,2013-04-21 17:47:00,
2013-04-21 13:49:00,48.2,26.2,30.51,NE,45,8.0,17.0,42,0.00,,,0.00,VWS V14.01,2013-04-21 17:49:00,
2013-04-21 13:51:00,48.5,27.0,30.51,ENE,73,12.0,17.0,43,0.00,,,0.00,VWS V14.01,2013-04-21 17:51:00,
2013-04-21 13:53:00,48.6,27.7,30.51,ENE,67,11.0,17.0,44,0.00,,,0.00,VWS V14.01,2013-04-21 17:53:00,
2013-04-21 13:55:00,48.5,25.9,30.51,ENE,57,5.0,17.0,41,0.00,,,0.00,VWS V14.01,2013-04-21 17:55:00,
2013-04-21 14:00:00,48.9,27.4,30.51,ENE,76,12.0,17.0,43,0.00,,,0.00,VWS V14.01,2013-04-21 18:00:00,
2013-04-21 14:01:00,48.8,26.2,30.51,East,79,12.0,17.0,41,0.00,,,0.00,VWS V14.01,2013-04-21 18:01:00,
2013-04-21 14:03:00,48.9,28.5,30.51,East,81,13.0,17.0,45,0.00,,,0.00,VWS V14.01,2013-04-21 18:03:00,
2013-04-21 14:05:00,49.1,26.4,30.51,East,91,12.0,12.0,41,0.00,,,0.00,VWS V14.01,2013-04-21 18:05:00,
2013-04-21 14:07:00,49.1,25.2,30.51,ENE,69,12.0,14.0,39,0.00,,,0.00,VWS V14.01,2013-04-21 18:07:00,
2013-04-21 14:09:00,48.9,25.7,30.51,ENE,76,13.0,16.0,40,0.00,,,0.00,VWS V14.01,2013-04-21 18:09:00,
2013-04-21 14:10:00,48.9,25.7,30.51,East,80,11.0,16.0,40,0.00,,,0.00,VWS V14.01,2013-04-21 18:10:00,
2013-04-21 14:12:00,49.1,27.0,30.51,ENE,74,4.0,16.0,42,0.00,,,0.00,VWS V14.01,2013-04-21 18:12:00,
2013-04-21 14:13:00,48.9,25.7,30.51,ENE,71,10.0,16.0,40,0.00,,,0.00,VWS V14.01,2013-04-21 18:13:00,
2013-04-21 14:15:00,48.9,26.2,30.51,ENE,78,11.0,16.0,41,0.00,,,0.00,VWS V14.01,2013-04-21 18:15:00,
2013-04-21 14:16:00,48.9,27.4,30.51,East,82,7.0,16.0,43,0.00,,,0.00,VWS V14.01,2013-04-21 18:16:00,
2013-04-21 14:17:00,48.8,26.7,30.51,ENE,71,8.0,16.0,42,0.00,,,0.00,VWS V14.01,2013-04-21 18:17:00,
2013-04-21 14:18:00,48.9,27.4,30.51,ENE,76,2.0,16.0,43,0.00,,,0.00,VWS V14.01,2013-04-21 18:18:00,
2013-04-21 14:22:00,49.1,28.7,30.51,ENE,74,8.0,16.0,45,0.00,,,0.00,VWS V14.01,2013-04-21 18:22:00,
2013-04-21 14:24:00,48.9,28.0,30.51,ENE,65,10.0,16.0,44,0.00,,,0.00,VWS V14.01,2013-04-21 18:24:00,
2013-04-21 14:25:00,48.8,28.4,30.51,East,80,7.0,16.0,45,0.00,,,0.00,VWS V14.01,2013-04-21 18:25:00,
2013-04-21 14:27:00,48.6,27.7,30.51,ENE,66,1.0,16.0,44,0.00,,,0.00,VWS V14.01,2013-04-21 18:27:00,
2013-04-21 14:31:00,48.6,26.6,30.51,NE,55,2.0,16.0,42,0.00,,,0.00,VWS V14.01,2013-04-21 18:31:00,
2013-04-21 14:33:00,49.1,27.0,30.51,ENE,72,10.0,16.0,42,0.00,,,0.00,VWS V14.01,2013-04-21 18:33:00,
2013-04-21 14:34:00,49.1,27.0,30.51,ENE,58,8.0,8.0,42,0.00,,,0.00,VWS V14.01,2013-04-21 18:34:00,
2013-04-21 14:39:00,49.2,27.7,30.51,ENE,78,10.0,13.0,43,0.00,,,0.00,VWS V14.01,2013-04-21 18:39:00,
2013-04-21 14:40:00,49.2,28.2,30.51,ENE,67,7.0,13.0,44,0.00,,,0.00,VWS V14.01,2013-04-21 18:40:00,
2013-04-21 14:41:00,49.2,28.8,30.51,ENE,70,6.0,13.0,45,0.00,,,0.00,VWS V14.01,2013-04-21 18:41:00,
2013-04-21 14:42:00,49.2,28.8,30.51,East,80,8.0,13.0,45,0.00,,,0.00,VWS V14.01,2013-04-21 18:42:00,
2013-04-21 14:44:00,49.2,27.7,30.51,ESE,117,7.0,13.0,43,0.00,,,0.00,VWS V14.01,2013-04-21 18:44:00,
2013-04-21 14:45:00,49.2,27.7,30.51,ENE,68,10.0,13.0,43,0.00,,,0.00,VWS V14.01,2013-04-21 18:45:00,
2013-04-21 14:46:00,48.9,27.4,30.51,East,91,8.0,13.0,43,0.00,,,0.00,VWS V14.01,2013-04-21 18:46:00,
2013-04-21 14:48:00,48.9,27.4,30.51,ESE,113,8.0,13.0,43,0.00,,,0.00,VWS V14.01,2013-04-21 18:48:00,
2013-04-21 14:49:00,49.1,27.6,30.51,ESE,107,6.0,13.0,43,0.00,,,0.00,VWS V14.01,2013-04-21 18:49:00,
2013-04-21 14:50:00,49.2,28.8,30.51,ENE,67,2.0,13.0,45,0.00,,,0.00,VWS V14.01,2013-04-21 18:50:00,
2013-04-21 14:53:00,49.1,26.4,30.51,ENE,74,7.0,13.0,41,0.00,,,0.00,VWS V14.01,2013-04-21 18:53:00,
2013-04-21 14:55:00,48.9,26.8,30.51,East,89,8.0,13.0,42,0.00,,,0.00,VWS V14.01,2013-04-21 18:55:00,
2013-04-21 14:59:00,48.9,26.2,30.51,ENE,61,8.0,13.0,41,0.00,,,0.00,VWS V14.01,2013-04-21 18:59:00,
2013-04-21 15:00:00,48.9,26.2,30.51,East,96,9.0,13.0,41,0.00,,,0.00,VWS V14.01,2013-04-21 19:00:00,
2013-04-21 15:01:00,48.9,26.2,30.51,ENE,74,12.0,13.0,41,0.00,,,0.00,VWS V14.01,2013-04-21 19:01:00,
2013-04-21 15:02:00,48.9,26.8,30.51,ENE,61,5.0,13.0,42,0.00,,,0.00,VWS V14.01,2013-04-21 19:02:00,
2013-04-21 15:04:00,48.9,27.4,30.50,East,90,7.0,13.0,43,0.00,,,0.00,VWS V14.01,2013-04-21 19:04:00,
2013-04-21 15:07:00,49.4,28.4,30.50,East,80,3.0,12.0,44,0.00,,,0.00,VWS V14.01,2013-04-21 19:07:00,
2013-04-21 15:09:00,49.2,28.8,30.50,ESE,107,5.0,13.0,45,0.00,,,0.00,VWS V14.01,2013-04-21 19:09:00,
2013-04-21 15:12:00,49.2,28.2,30.50,ESE,113,9.0,13.0,44,0.00,,,0.00,VWS V14.01,2013-04-21 19:12:00,
2013-04-21 15:13:00,49.1,27.6,30.50,East,87,7.0,13.0,43,0.00,,,0.00,VWS V14.01,2013-04-21 19:13:00,
2013-04-21 15:14:00,48.9,26.2,30.50,East,84,4.0,13.0,41,0.00,,,0.00,VWS V14.01,2013-04-21 19:14:00,
2013-04-21 15:16:00,48.9,28.5,30.50,ENE,76,5.0,13.0,45,0.00,,,0.00,VWS V14.01,2013-04-21 19:16:00,
2013-04-21 15:18:00,49.1,27.6,30.50,East,96,8.0,13.0,43,0.00,,,0.00,VWS V14.01,2013-04-21 19:18:00,
2013-04-21 15:20:00,49.1,27.6,30.50,East,94,6.0,13.0,43,0.00,,,0.00,VWS V14.01,2013-04-21 19:20:00,
2013-04-21 15:22:00,49.1,29.8,30.50,ENE,69,0.0,13.0,47,0.00,,,0.00,VWS V14.01,2013-04-21 19:22:00,
2013-04-21 15:24:00,49.2,29.3,30.50,ENE,78,5.0,13.0,46,0.00,,,0.00,VWS V14.01,2013-04-21 19:24:00,
2013-04-21 15:25:00,49.2,28.8,30.50,ESE,120,6.0,13.0,45,0.00,,,0.00,VWS V14.01,2013-04-21 19:25:00,
2013-04-21 15:27:00,49.2,28.2,30.50,ESE,104,9.0,13.0,44,0.00,,,0.00,VWS V14.01,2013-04-21 19:27:00,
2013-04-21 15:28:00,49.2,28.2,30.50,ESE,121,7.0,13.0,44,0.00,,,0.00,VWS V14.01,2013-04-21 19:28:00,
2013-04-21 15:30:00,49.2,29.3,30.50,ESE,114,12.0,13.0,46,0.00,,,0.00,VWS V14.01,2013-04-21 19:30:00,
2013-04-21 15:31:00,49.2,29.3,30.50,ESE,118,4.0,13.0,46,0.00,,,0.00,VWS V14.01,2013-04-21 19:31:00,
2013-04-21 15:33:00,49.2,28.8,30.50,SE,128,7.0,15.0,45,0.00,,,0.00,VWS V14.01,2013-04-21 19:33:00,
2013-04-21 15:34:00,49.4,29.0,30.50,ESE,113,6.0,15.0,45,0.00,,,0.00,VWS V14.01,2013-04-21 19:34:00,
2013-04-21 15:36:00,49.4,29.5,30.50,ESE,122,8.0,13.0,46,0.00,,,0.00,VWS V14.01,2013-04-21 19:36:00,
2013-04-21 15:39:00,49.4,29.5,30.50,ESE,104,7.0,13.0,46,0.00,,,0.00,VWS V14.01,2013-04-21 19:39:00,
2013-04-21 15:40:00,49.5,29.1,30.50,ESE,118,8.0,13.0,45,0.00,,,0.00,VWS V14.01,2013-04-21 19:40:00,
2013-04-21 15:42:00,49.5,29.1,30.50,ESE,121,8.0,13.0,45,0.00,,,0.00,VWS V14.01,2013-04-21 19:42:00,
2013-04-21 15:44:00,49.5,29.1,30.50,SE,126,9.0,13.0,45,0.00,,,0.00,VWS V14.01,2013-04-21 19:44:00,
2013-04-21 15:46:00,49.5,29.1,30.50,ESE,115,7.0,13.0,45,0.00,,,0.00,VWS V14.01,2013-04-21 19:46:00,
2013-04-21 15:47:00,49.5,29.6,30.50,ESE,115,7.0,13.0,46,0.00,,,0.00,VWS V14.01,2013-04-21 19:47:00,
2013-04-21 15:49:00,49.5,29.6,30.50,ESE,121,11.0,13.0,46,0.00,,,0.00,VWS V14.01,2013-04-21 19:49:00,
2013-04-21 15:51:00,49.4,29.0,30.50,ESE,122,11.0,13.0,45,0.00,,,0.00,VWS V14.01,2013-04-21 19:51:00,
2013-04-21 15:52:00,49.4,29.0,30.50,ESE,110,9.0,13.0,45,0.00,,,0.00,VWS V14.01,2013-04-21 19:52:00,
2013-04-21 15:53:00,49.4,28.4,30.50,East,87,5.0,13.0,44,0.00,,,0.00,VWS V14.01,2013-04-21 19:53:00,
2013-04-21 15:54:00,49.2,28.2,30.50,ESE,114,7.0,13.0,44,0.00,,,0.00,VWS V14.01,2013-04-21 19:54:00,
2013-04-21 15:55:00,49.2,28.2,30.50,ESE,117,12.0,13.0,44,0.00,,,0.00,VWS V14.01,2013-04-21 19:55:00,
2013-04-21 15:58:00,48.9,28.0,30.50,ESE,117,7.0,14.0,44,0.00,,,0.00,VWS V14.01,2013-04-21 19:58:00,
2013-04-21 16:00:00,48.8,27.9,30.50,ESE,120,14.0,14.0,44,0.00,,,0.00,VWS V14.01,2013-04-21 20:00:00,
2013-04-21 16:01:00,48.6,27.1,30.50,ESE,115,6.0,14.0,43,0.00,,,0.00,VWS V14.01,2013-04-21 20:01:00,
2013-04-21 16:03:00,48.8,28.4,30.50,SE,142,12.0,14.0,45,0.00,,,0.00,VWS V14.01,2013-04-21 20:03:00,
2013-04-21 16:04:00,48.8,28.4,30.50,SE,124,11.0,12.0,45,0.00,,,0.00,VWS V14.01,2013-04-21 20:04:00,
2013-04-21 16:05:00,48.8,28.4,30.50,East,96,9.0,13.0,45,0.00,,,0.00,VWS V14.01,2013-04-21 20:05:00,
2013-04-21 16:08:00,48.8,28.4,30.50,SE,125,14.0,15.0,45,0.00,,,0.00,VWS V14.01,2013-04-21 20:08:00,
2013-04-21 16:11:00,48.6,28.2,30.50,ESE,113,11.0,15.0,45,0.00,,,0.00,VWS V14.01,2013-04-21 20:11:00,
2013-04-21 16:12:00,48.6,28.2,30.50,ESE,118,11.0,15.0,45,0.00,,,0.00,VWS V14.01,2013-04-21 20:12:00,
2013-04-21 16:13:00,48.8,27.3,30.50,SE,128,9.0,15.0,43,0.00,,,0.00,VWS V14.01,2013-04-21 20:13:00,
2013-04-21 16:17:00,48.9,26.8,30.50,SE,128,11.0,15.0,42,0.00,,,0.00,VWS V14.01,2013-04-21 20:17:00,
2013-04-21 16:18:00,48.9,26.8,30.50,ESE,112,5.0,15.0,42,0.00,,,0.00,VWS V14.01,2013-04-21 20:18:00,
2013-04-21 16:19:00,49.1,27.6,30.50,SE,127,9.0,15.0,43,0.00,,,0.00,VWS V14.01,2013-04-21 20:19:00,
2013-04-21 16:20:00,49.2,28.8,30.50,SE,125,8.0,15.0,45,0.00,,,0.00,VWS V14.01,2013-04-21 20:20:00,
2013-04-21 16:22:00,49.2,28.8,30.50,ESE,113,11.0,15.0,45,0.00,,,0.00,VWS V14.01,2013-04-21 20:22:00,
2013-04-21 16:23:00,49.2,28.8,30.50,ESE,113,12.0,15.0,45,0.00,,,0.00,VWS V14.01,2013-04-21 20:23:00,
2013-04-21 16:26:00,49.1,29.2,30.50,ESE,123,6.0,15.0,46,0.00,,,0.00,VWS V14.01,2013-04-21 20:26:00,
2013-04-21 16:27:00,49.1,29.2,30.50,ESE,122,12.0,15.0,46,0.00,,,0.00,VWS V14.01,2013-04-21 20:27:00,
2013-04-21 16:28:00,48.9,29.6,30.50,SE,124,5.0,15.0,47,0.00,,,0.00,VWS V14.01,2013-04-21 20:28:00,
2013-04-21 16:31:00,48.8,29.0,30.50,SE,126,9.0,15.0,46,0.00,,,0.00,VWS V14.01,2013-04-21 20:31:00,
2013-04-21 16:32:00,48.8,30.0,30.50,SSE,150,8.0,15.0,48,0.00,,,0.00,VWS V14.01,2013-04-21 20:32:00,
2013-04-21 16:34:00,48.6,29.8,30.51,SE,132,8.0,15.0,48,0.00,,,0.00,VWS V14.01,2013-04-21 20:34:00,
2013-04-21 16:36:00,48.5,29.2,30.51,ESE,115,7.0,14.0,47,0.00,,,0.00,VWS V14.01,2013-04-21 20:36:00,
2013-04-21 16:39:00,48.2,29.5,30.51,SE,126,12.0,14.0,48,0.00,,,0.00,VWS V14.01,2013-04-21 20:39:00,
2013-04-21 16:42:00,47.9,29.7,30.51,SE,129,9.0,14.0,49,0.00,,,0.00,VWS V14.01,2013-04-21 20:42:00,
2013-04-21 16:43:00,47.9,29.2,30.51,SE,128,12.0,14.0,48,0.00,,,0.00,VWS V14.01,2013-04-21 20:43:00,
2013-04-21 16:45:00,47.7,29.0,30.51,SE,136,8.0,14.0,48,0.00,,,0.00,VWS V14.01,2013-04-21 20:45:00,
2013-04-21 16:47:00,47.7,29.5,30.51,ESE,117,8.0,14.0,49,0.00,,,0.00,VWS V14.01,2013-04-21 20:47:00,
2013-04-21 16:48:00,47.7,29.5,30.51,SE,130,6.0,14.0,49,0.00,,,0.00,VWS V14.01,2013-04-21 20:48:00,
2013-04-21 16:49:00,47.7,30.0,30.51,SE,130,12.0,14.0,50,0.00,,,0.00,VWS V14.01,2013-04-21 20:49:00,
2013-04-21 16:50:00,47.9,30.2,30.51,SE,134,11.0,14.0,50,0.00,,,0.00,VWS V14.01,2013-04-21 20:50:00,
2013-04-21 16:51:00,47.9,30.2,30.51,SE,133,6.0,14.0,50,0.00,,,0.00,VWS V14.01,2013-04-21 20:51:00,
2013-04-21 16:54:00,47.9,30.7,30.51,SE,125,9.0,14.0,51,0.00,,,0.00,VWS V14.01,2013-04-21 20:54:00,
2013-04-21 16:55:00,48.0,30.8,30.51,SE,125,9.0,14.0,51,0.00,,,0.00,VWS V14.01,2013-04-21 20:55:00,
2013-04-21 16:56:00,48.0,29.8,30.51,ESE,123,11.0,14.0,49,0.00,,,0.00,VWS V14.01,2013-04-21 20:56:00,
2013-04-21 16:58:00,48.0,29.3,30.51,SE,124,11.0,14.0,48,0.00,,,0.00,VWS V14.01,2013-04-21 20:58:00,
2013-04-21 17:01:00,48.2,28.4,30.51,ESE,117,11.0,14.0,46,0.00,,,0.00,VWS V14.01,2013-04-21 21:01:00,
2013-04-21 17:02:00,48.2,28.9,30.51,ESE,119,9.0,14.0,47,0.00,,,0.00,VWS V14.01,2013-04-21 21:02:00,
2013-04-21 17:03:00,48.3,29.5,30.51,ESE,123,7.0,14.0,48,0.00,,,0.00,VWS V14.01,2013-04-21 21:03:00,
2013-04-21 17:04:00,48.3,30.0,30.51,ESE,119,7.0,14.0,49,0.00,,,0.00,VWS V14.01,2013-04-21 21:04:00,
2013-04-21 17:06:00,48.5,30.7,30.51,ESE,123,5.0,12.0,50,0.00,,,0.00,VWS V14.01,2013-04-21 21:06:00,
2013-04-21 17:07:00,48.5,29.2,30.51,ESE,116,9.0,12.0,47,0.00,,,0.00,VWS V14.01,2013-04-21 21:07:00,
2013-04-21 17:08:00,48.5,29.2,30.51,SE,126,9.0,12.0,47,0.00,,,0.00,VWS V14.01,2013-04-21 21:08:00,
2013-04-21 17:11:00,48.2,28.9,30.51,SE,132,7.0,12.0,47,0.00,,,0.00,VWS V14.01,2013-04-21 21:11:00,
2013-04-21 17:12:00,48.2,28.9,30.51,SE,129,6.0,12.0,47,0.00,,,0.00,VWS V14.01,2013-04-21 21:12:00,
2013-04-21 17:16:00,47.9,30.2,30.51,SE,134,6.0,12.0,50,0.00,,,0.00,VWS V14.01,2013-04-21 21:16:00,
2013-04-21 17:17:00,47.9,29.7,30.51,SE,129,11.0,12.0,49,0.00,,,0.00,VWS V14.01,2013-04-21 21:17:00,
2013-04-21 17:18:00,47.9,30.7,30.51,SE,138,7.0,12.0,51,0.00,,,0.00,VWS V14.01,2013-04-21 21:18:00,
2013-04-21 17:19:00,47.7,30.5,30.51,SE,125,9.0,12.0,51,0.00,,,0.00,VWS V14.01,2013-04-21 21:19:00,
2013-04-21 17:21:00,47.6,29.9,30.51,SE,125,6.0,12.0,50,0.00,,,0.00,VWS V14.01,2013-04-21 21:21:00,
2013-04-21 17:22:00,47.6,29.9,30.51,ESE,123,2.0,12.0,50,0.00,,,0.00,VWS V14.01,2013-04-21 21:22:00,
2013-04-21 17:24:00,47.6,29.9,30.51,SE,126,6.0,12.0,50,0.00,,,0.00,VWS V14.01,2013-04-21 21:24:00,
2013-04-21 17:25:00,47.6,30.4,30.51,SE,135,11.0,12.0,51,0.00,,,0.00,VWS V14.01,2013-04-21 21:25:00,
2013-04-21 17:27:00,47.4,30.2,30.51,SE,132,7.0,12.0,51,0.00,,,0.00,VWS V14.01,2013-04-21 21:27:00,
2013-04-21 17:29:00,47.4,30.2,30.51,SE,136,8.0,12.0,51,0.00,,,0.00,VWS V14.01,2013-04-21 21:29:00,
2013-04-21 17:30:00,47.3,30.1,30.51,SE,143,10.0,13.0,51,0.00,,,0.00,VWS V14.01,2013-04-21 21:30:00,
2013-04-21 17:32:00,47.3,30.6,30.51,SE,127,5.0,13.0,52,0.00,,,0.00,VWS V14.01,2013-04-21 21:32:00,
2013-04-21 17:33:00,47.3,30.6,30.51,SE,138,10.0,13.0,52,0.00,,,0.00,VWS V14.01,2013-04-21 21:33:00,
2013-04-21 17:34:00,47.3,30.1,30.51,SE,141,6.0,13.0,51,0.00,,,0.00,VWS V14.01,2013-04-21 21:34:00,
2013-04-21 17:37:00,47.0,29.3,30.51,ESE,120,5.0,12.0,50,0.00,,,0.00,VWS V14.01,2013-04-21 21:37:00,
2013-04-21 17:38:00,47.0,29.3,30.51,SE,137,9.0,12.0,50,0.00,,,0.00,VWS V14.01,2013-04-21 21:38:00,
2013-04-21 17:39:00,47.0,29.3,30.51,SE,135,5.0,12.0,50,0.00,,,0.00,VWS V14.01,2013-04-21 21:39:00,
2013-04-21 17:40:00,46.8,29.6,30.51,SE,126,8.0,12.0,51,0.00,,,0.00,VWS V14.01,2013-04-21 21:40:00,
2013-04-21 17:45:00,46.7,29.5,30.51,SE,145,10.0,12.0,51,0.00,,,0.00,VWS V14.01,2013-04-21 21:45:00,
2013-04-21 17:47:00,46.7,30.0,30.51,ESE,123,9.0,12.0,52,0.00,,,0.00,VWS V14.01,2013-04-21 21:47:00,
2013-04-21 17:49:00,46.7,29.5,30.51,SE,126,4.0,12.0,51,0.00,,,0.00,VWS V14.01,2013-04-21 21:49:00,
2013-04-21 17:52:00,46.8,30.6,30.51,ESE,119,8.0,12.0,53,0.00,,,0.00,VWS V14.01,2013-04-21 21:52:00,
2013-04-21 17:53:00,46.8,30.6,30.51,SE,128,6.0,12.0,53,0.00,,,0.00,VWS V14.01,2013-04-21 21:53:00,
2013-04-21 17:56:00,46.8,30.6,30.51,ESE,120,7.0,13.0,53,0.00,,,0.00,VWS V14.01,2013-04-21 21:56:00,
2013-04-21 17:58:00,46.7,30.5,30.51,SE,125,5.0,14.0,53,0.00,,,0.00,VWS V14.01,2013-04-21 21:58:00,
2013-04-21 17:59:00,46.7,31.0,30.51,SE,134,8.0,14.0,54,0.00,,,0.00,VWS V14.01,2013-04-21 21:59:00,
2013-04-21 18:00:00,46.7,30.5,30.51,ESE,121,8.0,14.0,53,0.00,,,0.00,VWS V14.01,2013-04-21 22:00:00,
2013-04-21 18:04:00,46.5,29.4,30.51,SE,128,6.0,14.0,51,0.00,,,0.00,VWS V14.01,2013-04-21 22:04:00,
2013-04-21 18:06:00,46.5,29.4,30.51,SE,133,5.0,10.0,51,0.00,,,0.00,VWS V14.01,2013-04-21 22:06:00,
2013-04-21 18:07:00,46.5,29.4,30.51,SE,129,2.0,10.0,51,0.00,,,0.00,VWS V14.01,2013-04-21 22:07:00,
2013-04-21 18:09:00,46.5,29.8,30.51,ESE,104,4.0,10.0,52,0.00,,,0.00,VWS V14.01,2013-04-21 22:09:00,
2013-04-21 18:10:00,46.5,29.8,30.51,SE,129,6.0,10.0,52,0.00,,,0.00,VWS V14.01,2013-04-21 22:10:00,
2013-04-21 18:11:00,46.5,30.3,30.51,ESE,123,5.0,10.0,53,0.00,,,0.00,VWS V14.01,2013-04-21 22:11:00,
2013-04-21 18:12:00,46.7,30.5,30.51,SE,129,9.0,10.0,53,0.00,,,0.00,VWS V14.01,2013-04-21 22:12:00,
2013-04-21 18:13:00,46.7,30.0,30.51,SE,126,9.0,11.0,52,0.00,,,0.00,VWS V14.01,2013-04-21 22:13:00,
2013-04-21 18:17:00,46.8,29.6,30.51,ESE,123,7.0,11.0,51,0.00,,,0.00,VWS V14.01,2013-04-21 22:17:00,
2013-04-21 18:18:00,46.8,29.2,30.51,SE,129,9.0,11.0,50,0.00,,,0.00,VWS V14.01,2013-04-21 22:18:00,
2013-04-21 18:19:00,46.8,29.6,30.51,SE,134,8.0,11.0,51,0.00,,,0.00,VWS V14.01,2013-04-21 22:19:00,
2013-04-21 18:20:00,46.8,29.6,30.51,SE,131,5.0,11.0,51,0.00,,,0.00,VWS V14.01,2013-04-21 22:20:00,
2013-04-21 18:21:00,46.8,30.1,30.51,SE,130,1.0,11.0,52,0.00,,,0.00,VWS V14.01,2013-04-21 22:21:00,
2013-04-21 18:23:00,46.8,31.0,30.51,ESE,117,8.0,11.0,54,0.00,,,0.00,VWS V14.01,2013-04-21 22:23:00,
2013-04-21 18:25:00,46.8,30.6,30.51,ESE,123,5.0,11.0,53,0.00,,,0.00,VWS V14.01,2013-04-21 22:25:00,
2013-04-21 18:26:00,46.8,30.1,30.51,SE,124,4.0,11.0,52,0.00,,,0.00,VWS V14.01,2013-04-21 22:26:00,
2013-04-21 18:29:00,46.8,31.0,30.51,ESE,117,4.0,11.0,54,0.00,,,0.00,VWS V14.01,2013-04-21 22:29:00,
2013-04-21 18:30:00,46.8,31.0,30.51,ESE,118,1.0,11.0,54,0.00,,,0.00,VWS V14.01,2013-04-21 22:30:00,
2013-04-21 18:31:00,46.8,30.6,30.51,ESE,118,2.0,11.0,53,0.00,,,0.00,VWS V14.01,2013-04-21 22:31:00,
2013-04-21 18:32:00,46.8,30.6,30.51,ESE,118,5.0,11.0,53,0.00,,,0.00,VWS V14.01,2013-04-21 22:32:00,
2013-04-21 18:33:00,46.8,30.6,30.51,ESE,121,7.0,11.0,53,0.00,,,0.00,VWS V14.01,2013-04-21 22:33:00,
2013-04-21 18:34:00,46.8,30.6,30.51,ESE,122,5.0,11.0,53,0.00,,,0.00,VWS V14.01,2013-04-21 22:34:00,
2013-04-21 18:37:00,46.8,31.0,30.51,ESE,120,4.0,9.0,54,0.00,,,0.00,VWS V14.01,2013-04-21 22:37:00,
2013-04-21 18:38:00,46.7,31.0,30.51,SE,133,4.0,9.0,54,0.00,,,0.00,VWS V14.01,2013-04-21 22:38:00,
2013-04-21 18:41:00,46.7,31.4,30.51,SE,126,6.0,9.0,55,0.00,,,0.00,VWS V14.01,2013-04-21 22:41:00,
2013-04-21 18:42:00,46.7,31.4,30.51,SE,130,8.0,9.0,55,0.00,,,0.00,VWS V14.01,2013-04-21 22:42:00,
2013-04-21 18:43:00,46.7,31.4,30.51,SE,140,6.0,9.0,55,0.00,,,0.00,VWS V14.01,2013-04-21 22:43:00,
2013-04-21 18:47:00,46.7,31.4,30.51,SE,128,0.0,9.0,55,0.00,,,0.00,VWS V14.01,2013-04-21 22:47:00,
2013-04-21 18:48:00,46.5,31.2,30.51,SE,128,5.0,9.0,55,0.00,,,0.00,VWS V14.01,2013-04-21 22:48:00,
2013-04-21 18:49:00,46.5,31.2,30.51,SE,129,4.0,9.0,55,0.00,,,0.00,VWS V14.01,2013-04-21 22:49:00,
2013-04-21 18:50:00,46.5,31.2,30.51,SE,130,6.0,9.0,55,0.00,,,0.00,VWS V14.01,2013-04-21 22:50:00,
2013-04-21 18:53:00,46.5,31.2,30.51,SE,128,5.0,11.0,55,0.00,,,0.00,VWS V14.01,2013-04-21 22:53:00,
2013-04-21 18:54:00,46.5,31.2,30.51,SE,128,5.0,11.0,55,0.00,,,0.00,VWS V14.01,2013-04-21 22:54:00,
2013-04-21 18:56:00,46.4,31.6,30.51,SE,128,0.0,11.0,56,0.00,,,0.00,VWS V14.01,2013-04-21 22:56:00,
2013-04-21 19:00:00,46.4,31.6,30.51,SE,126,0.0,11.0,56,0.00,,,0.00,VWS V14.01,2013-04-21 23:00:00,
2013-04-21 19:01:00,46.2,31.8,30.51,SE,126,5.0,11.0,57,0.00,,,0.00,VWS V14.01,2013-04-21 23:01:00,
2013-04-21 19:02:00,46.2,31.8,30.51,SE,126,0.0,11.0,57,0.00,,,0.00,VWS V14.01,2013-04-21 23:02:00,
2013-04-21 19:04:00,46.2,31.4,30.51,SE,126,0.0,11.0,56,0.00,,,0.00,VWS V14.01,2013-04-21 23:04:00,
2013-04-21 19:06:00,46.2,31.4,30.51,SE,126,2.0,6.0,56,0.00,,,0.00,VWS V14.01,2013-04-21 23:06:00,
2013-04-21 19:07:00,46.2,31.4,30.51,SE,131,7.0,7.0,56,0.00,,,0.00,VWS V14.01,2013-04-21 23:07:00,
2013-04-21 19:10:00,46.1,30.9,30.51,SE,137,6.0,8.0,55,0.00,,,0.00,VWS V14.01,2013-04-21 23:10:00,
2013-04-21 19:11:00,46.1,30.9,30.51,SE,138,6.0,8.0,55,0.00,,,0.00,VWS V14.01,2013-04-21 23:11:00,
2013-04-21 19:13:00,46.1,31.3,30.51,SE,138,0.0,8.0,56,0.00,,,0.00,VWS V14.01,2013-04-21 23:13:00,
2013-04-21 19:16:00,46.0,30.8,30.51,SE,138,1.0,8.0,55,0.00,,,0.00,VWS V14.01,2013-04-21 23:16:00,
2013-04-21 19:17:00,46.0,30.8,30.51,SE,138,0.0,8.0,55,0.00,,,0.00,VWS V14.01,2013-04-21 23:17:00,
2013-04-21 19:18:00,46.0,30.8,30.51,SE,138,0.0,8.0,55,0.00,,,0.00,VWS V14.01,2013-04-21 23:18:00,
2013-04-21 19:20:00,45.8,30.6,30.52,SE,138,6.0,8.0,55,0.00,,,0.00,VWS V14.01,2013-04-21 23:20:00,
2013-04-21 19:22:00,45.7,30.0,30.52,SE,139,7.0,8.0,54,0.00,,,0.00,VWS V14.01,2013-04-21 23:22:00,
2013-04-21 19:24:00,45.7,29.6,30.52,SE,140,6.0,8.0,53,0.00,,,0.00,VWS V14.01,2013-04-21 23:24:00,
2013-04-21 19:25:00,45.7,30.0,30.52,SE,140,7.0,8.0,54,0.00,,,0.00,VWS V14.01,2013-04-21 23:25:00,
2013-04-21 19:27:00,45.5,30.3,30.52,SE,144,0.0,9.0,55,0.00,,,0.00,VWS V14.01,2013-04-21 23:27:00,
2013-04-21 19:28:00,45.5,30.3,30.52,SE,144,2.0,9.0,55,0.00,,,0.00,VWS V14.01,2013-04-21 23:28:00,
2013-04-21 19:29:00,45.5,30.3,30.52,SE,144,8.0,9.0,55,0.00,,,0.00,VWS V14.01,2013-04-21 23:29:00,
2013-04-21 19:31:00,45.4,28.4,30.52,SE,144,4.0,9.0,51,0.00,,,0.00,VWS V14.01,2013-04-21 23:31:00,
2013-04-21 19:32:00,45.4,28.8,30.52,SE,144,0.0,9.0,52,0.00,,,0.00,VWS V14.01,2013-04-21 23:32:00,
2013-04-21 19:35:00,45.4,30.2,30.53,SE,144,2.0,6.0,55,0.00,,,0.00,VWS V14.01,2013-04-21 23:35:00,
2013-04-21 19:36:00,45.4,30.2,30.53,SE,144,0.0,6.0,55,0.00,,,0.00,VWS V14.01,2013-04-21 23:36:00,
2013-04-21 19:37:00,45.4,30.2,30.53,SE,144,0.0,6.0,55,0.00,,,0.00,VWS V14.01,2013-04-21 23:37:00,
2013-04-21 19:39:00,45.4,29.7,30.53,SE,143,5.0,6.0,54,0.00,,,0.00,VWS V14.01,2013-04-21 23:39:00,
2013-04-21 19:42:00,45.4,29.7,30.53,SE,141,2.0,8.0,54,0.00,,,0.00,VWS V14.01,2013-04-21 23:42:00,
2013-04-21 19:44:00,45.4,30.2,30.53,SE,144,2.0,9.0,55,0.00,,,0.00,VWS V14.01,2013-04-21 23:44:00,
2013-04-21 19:47:00,45.4,30.6,30.53,SE,125,1.0,9.0,56,0.00,,,0.00,VWS V14.01,2013-04-21 23:47:00,
2013-04-21 19:48:00,45.4,30.6,30.53,SE,133,7.0,9.0,56,0.00,,,0.00,VWS V14.01,2013-04-21 23:48:00,
2013-04-21 19:50:00,45.4,30.6,30.53,SE,136,6.0,9.0,56,0.00,,,0.00,VWS V14.01,2013-04-21 23:50:00,
2013-04-21 19:51:00,45.4,30.6,30.53,SE,136,6.0,9.0,56,0.00,,,0.00,VWS V14.01,2013-04-21 23:51:00,
2013-04-21 19:55:00,45.2,30.0,30.53,SSE,148,4.0,9.0,55,0.00,,,0.00,VWS V14.01,2013-04-21 23:55:00,
2013-04-21 19:56:00,45.2,30.0,30.53,SSE,147,6.0,9.0,55,0.00,,,0.00,VWS V14.01,2013-04-21 23:56:00,
2013-04-21 19:58:00,45.2,30.5,30.53,SE,138,4.0,10.0,56,0.00,,,0.00,VWS V14.01,2013-04-21 23:58:00,
2013-04-21 19:59:00,45.2,30.5,30.53,SSE,148,4.0,10.0,56,0.00,,,0.00,VWS V14.01,2013-04-21 23:59:00,
2013-04-21 20:00:00,45.2,30.5,30.53,SE,142,6.0,10.0,56,0.00,,,0.00,VWS V14.01,2013-04-22 00:00:00,
2013-04-21 20:01:00,45.2,30.5,30.53,SSE,148,8.0,10.0,56,0.00,,,0.00,VWS V14.01,2013-04-22 00:01:00,
2013-04-21 20:05:00,45.1,29.5,30.53,SSE,148,7.0,8.0,54,0.00,,,0.00,VWS V14.01,2013-04-22 00:05:00,
2013-04-21 20:06:00,45.1,29.0,30.53,SSE,148,7.0,9.0,53,0.00,,,0.00,VWS V14.01,2013-04-22 00:06:00,
2013-04-21 20:10:00,45.2,30.0,30.53,SE,142,6.0,10.0,55,0.00,,,0.00,VWS V14.01,2013-04-22 00:10:00,
2013-04-21 20:11:00,45.2,30.5,30.53,SSE,152,7.0,10.0,56,0.00,,,0.00,VWS V14.01,2013-04-22 00:11:00,
2013-04-21 20:12:00,45.2,30.5,30.53,SSE,150,9.0,10.0,56,0.00,,,0.00,VWS V14.01,2013-04-22 00:12:00,
2013-04-21 20:13:00,45.2,30.5,30.53,SSE,148,6.0,10.0,56,0.00,,,0.00,VWS V14.01,2013-04-22 00:13:00,
2013-04-21 20:16:00,45.1,30.8,30.53,SSE,149,6.0,10.0,57,0.00,,,0.00,VWS V14.01,2013-04-22 00:16:00,
2013-04-21 20:17:00,45.1,30.8,30.53,SE,145,6.0,10.0,57,0.00,,,0.00,VWS V14.01,2013-04-22 00:17:00,
2013-04-21 20:19:00,45.1,31.2,30.54,SE,140,1.0,10.0,58,0.00,,,0.00,VWS V14.01,2013-04-22 00:19:00,
2013-04-21 20:21:00,44.9,30.6,30.54,SE,141,6.0,10.0,57,0.00,,,0.00,VWS V14.01,2013-04-22 00:21:00,
2013-04-21 20:23:00,44.9,31.0,30.54,SE,140,2.0,10.0,58,0.00,,,0.00,VWS V14.01,2013-04-22 00:23:00,
2013-04-21 20:25:00,44.9,31.5,30.54,SSE,151,4.0,10.0,59,0.00,,,0.00,VWS V14.01,2013-04-22 00:25:00,
2013-04-21 20:28:00,44.8,31.4,30.54,SSE,150,5.0,10.0,59,0.00,,,0.00,VWS V14.01,2013-04-22 00:28:00,
2013-04-21 20:31:00,44.6,31.2,30.54,SSE,147,2.0,10.0,59,0.00,,,0.00,VWS V14.01,2013-04-22 00:31:00,
2013-04-21 20:32:00,44.6,31.2,30.54,SE,145,1.0,10.0,59,0.00,,,0.00,VWS V14.01,2013-04-22 00:32:00,
2013-04-21 20:33:00,44.6,30.8,30.55,SE,145,0.0,10.0,58,0.00,,,0.00,VWS V14.01,2013-04-22 00:33:00,
2013-04-21 20:35:00,44.6,31.2,30.55,SE,144,0.0,4.0,59,0.00,,,0.00,VWS V14.01,2013-04-22 00:35:00,
2013-04-21 20:37:00,44.6,31.2,30.55,SE,144,5.0,7.0,59,0.00,,,0.00,VWS V14.01,2013-04-22 00:37:00,
2013-04-21 20:38:00,44.5,31.1,30.55,SE,144,0.0,7.0,59,0.00,,,0.00,VWS V14.01,2013-04-22 00:38:00,
2013-04-21 20:40:00,44.5,30.2,30.55,SE,146,4.0,7.0,57,0.00,,,0.00,VWS V14.01,2013-04-22 00:40:00,
2013-04-21 20:41:00,44.5,30.2,30.55,SE,146,0.0,7.0,57,0.00,,,0.00,VWS V14.01,2013-04-22 00:41:00,
2013-04-21 20:46:00,44.5,31.1,30.55,SSE,161,0.0,7.0,59,0.00,,,0.00,VWS V14.01,2013-04-22 00:46:00,
2013-04-21 20:47:00,44.5,31.1,30.55,SSE,161,2.0,7.0,59,0.00,,,0.00,VWS V14.01,2013-04-22 00:47:00,
2013-04-21 20:49:00,44.3,30.9,30.55,SSE,159,0.0,7.0,59,0.00,,,0.00,VWS V14.01,2013-04-22 00:49:00,
2013-04-21 20:51:00,44.3,30.5,30.55,SSE,159,0.0,7.0,58,0.00,,,0.00,VWS V14.01,2013-04-22 00:51:00,
2013-04-21 20:52:00,44.3,30.9,30.55,SSE,162,0.0,7.0,59,0.00,,,0.00,VWS V14.01,2013-04-22 00:52:00,
2013-04-21 20:54:00,44.2,30.8,30.55,SSE,161,0.0,7.0,59,0.00,,,0.00,VWS V14.01,2013-04-22 00:54:00,
2013-04-21 20:55:00,44.2,30.8,30.55,SSE,159,0.0,7.0,59,0.00,,,0.00,VWS V14.01,2013-04-22 00:55:00,
2013-04-21 20:57:00,44.2,30.8,30.55,SSE,160,1.0,7.0,59,0.00,,,0.00,VWS V14.01,2013-04-22 00:57:00,
2013-04-21 20:58:00,44.2,30.8,30.55,SSE,159,6.0,7.0,59,0.00,,,0.00,VWS V14.01,2013-04-22 00:58:00,
2013-04-21 21:01:00,44.2,30.8,30.55,SSE,153,0.0,7.0,59,0.00,,,0.00,VWS V14.01,2013-04-22 01:01:00,
2013-04-21 21:03:00,44.2,30.8,30.56,SSE,157,2.0,7.0,59,0.00,,,0.00,VWS V14.01,2013-04-22 01:03:00,
2013-04-21 21:07:00,44.1,30.7,30.56,SSE,157,2.0,4.0,59,0.00,,,0.00,VWS V14.01,2013-04-22 01:07:00,
2013-04-21 21:08:00,44.1,30.7,30.56,SSE,157,0.0,5.0,59,0.00,,,0.00,VWS V14.01,2013-04-22 01:08:00,
2013-04-21 21:09:00,44.1,31.1,30.56,SSE,157,0.0,5.0,60,0.00,,,0.00,VWS V14.01,2013-04-22 01:09:00,
2013-04-21 21:12:00,44.1,31.1,30.56,SSE,159,1.0,6.0,60,0.00,,,0.00,VWS V14.01,2013-04-22 01:12:00,
2013-04-21 21:13:00,44.1,31.1,30.56,SSE,159,5.0,6.0,60,0.00,,,0.00,VWS V14.01,2013-04-22 01:13:00,
2013-04-21 21:15:00,44.1,31.1,30.56,SSE,159,0.0,6.0,60,0.00,,,0.00,VWS V14.01,2013-04-22 01:15:00,
2013-04-21 21:16:00,44.1,31.1,30.56,SSE,160,2.0,6.0,60,0.00,,,0.00,VWS V14.01,2013-04-22 01:16:00,
2013-04-21 21:17:00,44.1,30.7,30.56,SSE,158,5.0,6.0,59,0.00,,,0.00,VWS V14.01,2013-04-22 01:17:00,
2013-04-21 21:20:00,43.9,30.5,30.56,SSE,161,0.0,7.0,59,0.00,,,0.00,VWS V14.01,2013-04-22 01:20:00,
2013-04-21 21:22:00,43.9,30.5,30.56,SSE,159,1.0,7.0,59,0.00,,,0.00,VWS V14.01,2013-04-22 01:22:00,
2013-04-21 21:23:00,43.9,30.5,30.56,SSE,154,4.0,7.0,59,0.00,,,0.00,VWS V14.01,2013-04-22 01:23:00,
2013-04-21 21:24:00,43.9,30.5,30.56,SSE,157,0.0,7.0,59,0.00,,,0.00,VWS V14.01,2013-04-22 01:24:00,
2013-04-21 21:25:00,43.9,30.5,30.56,SSE,150,4.0,7.0,59,0.00,,,0.00,VWS V14.01,2013-04-22 01:25:00,
2013-04-21 21:29:00,43.9,30.5,30.56,SSE,150,2.0,9.0,59,0.00,,,0.00,VWS V14.01,2013-04-22 01:29:00,
2013-04-21 21:30:00,43.9,30.5,30.56,SSE,150,0.0,9.0,59,0.00,,,0.00,VWS V14.01,2013-04-22 01:30:00,
2013-04-21 21:31:00,43.9,30.5,30.56,SSE,152,2.0,9.0,59,0.00,,,0.00,VWS V14.01,2013-04-22 01:31:00,
2013-04-21 21:35:00,43.9,30.5,30.56,SSE,153,5.0,6.0,59,0.00,,,0.00,VWS V14.01,2013-04-22 01:35:00,
2013-04-21 21:36:00,44.1,30.7,30.56,SSE,153,4.0,7.0,59,0.00,,,0.00,VWS V14.01,2013-04-22 01:36:00,
2013-04-21 21:37:00,44.1,30.7,30.56,SSE,153,0.0,7.0,59,0.00,,,0.00,VWS V14.01,2013-04-22 01:37:00,
2013-04-21 21:38:00,44.1,30.7,30.56,SSE,153,0.0,7.0,59,0.00,,,0.00,VWS V14.01,2013-04-22 01:38:00,
2013-04-21 21:42:00,44.1,30.7,30.56,SSE,150,0.0,7.0,59,0.00,,,0.00,VWS V14.01,2013-04-22 01:42:00,
2013-04-21 21:43:00,44.1,31.1,30.56,SSE,150,2.0,7.0,60,0.00,,,0.00,VWS V14.01,2013-04-22 01:43:00,
2013-04-21 21:44:00,44.1,31.1,30.56,SSE,150,0.0,7.0,60,0.00,,,0.00,VWS V14.01,2013-04-22 01:44:00,
2013-04-21 21:47:00,43.9,30.5,30.56,SSE,151,2.0,7.0,59,0.00,,,0.00,VWS V14.01,2013-04-22 01:47:00,
2013-04-21 21:48:00,43.9,30.9,30.56,SSE,151,0.0,7.0,60,0.00,,,0.00,VWS V14.01,2013-04-22 01:48:00,
2013-04-21 21:49:00,43.9,30.9,30.56,SSE,150,0.0,7.0,60,0.00,,,0.00,VWS V14.01,2013-04-22 01:49:00,
2013-04-21 21:50:00,43.9,30.9,30.56,SSE,150,0.0,7.0,60,0.00,,,0.00,VWS V14.01,2013-04-22 01:50:00,
2013-04-21 21:53:00,43.9,30.5,30.56,SSE,150,0.0,7.0,59,0.00,,,0.00,VWS V14.01,2013-04-22 01:53:00,
2013-04-21 21:54:00,43.9,30.9,30.56,SSE,150,0.0,7.0,60,0.00,,,0.00,VWS V14.01,2013-04-22 01:54:00,
2013-04-21 21:55:00,43.9,30.9,30.56,SSE,150,0.0,7.0,60,0.00,,,0.00,VWS V14.01,2013-04-22 01:55:00,
2013-04-21 21:57:00,43.9,30.5,30.56,SSE,150,0.0,7.0,59,0.00,,,0.00,VWS V14.01,2013-04-22 01:57:00,
2013-04-21 22:00:00,43.9,30.9,30.56,SSE,150,0.0,7.0,60,0.00,,,0.00,VWS V14.01,2013-04-22 02:00:00,
2013-04-21 22:02:00,43.9,30.9,30.56,SSE,150,0.0,7.0,60,0.00,,,0.00,VWS V14.01,2013-04-22 02:02:00,
2013-04-21 22:03:00,43.9,30.9,30.55,SSE,150,0.0,7.0,60,0.00,,,0.00,VWS V14.01,2013-04-22 02:03:00,
2013-04-21 22:06:00,43.9,31.3,30.55,SSE,150,0.0,0.0,61,0.00,,,0.00,VWS V14.01,2013-04-22 02:06:00,
2013-04-21 22:07:00,43.9,31.3,30.55,SSE,150,0.0,0.0,61,0.00,,,0.00,VWS V14.01,2013-04-22 02:07:00,
2013-04-21 22:08:00,43.9,31.3,30.55,SSE,150,0.0,0.0,61,0.00,,,0.00,VWS V14.01,2013-04-22 02:08:00,
2013-04-21 22:10:00,43.8,31.2,30.55,SSE,150,0.0,0.0,61,0.00,,,0.00,VWS V14.01,2013-04-22 02:10:00,
2013-04-21 22:14:00,43.8,31.2,30.55,SSE,150,0.0,0.0,61,0.00,,,0.00,VWS V14.01,2013-04-22 02:14:00,
2013-04-21 22:15:00,43.8,31.2,30.55,SSE,150,0.0,0.0,61,0.00,,,0.00,VWS V14.01,2013-04-22 02:15:00,
2013-04-21 22:17:00,43.8,31.2,30.55,SSE,150,0.0,0.0,61,0.00,,,0.00,VWS V14.01,2013-04-22 02:17:00,
2013-04-21 22:19:00,43.8,31.2,30.55,SSE,150,0.0,0.0,61,0.00,,,0.00,VWS V14.01,2013-04-22 02:19:00,
2013-04-21 22:20:00,43.6,31.0,30.55,SSE,150,0.0,0.0,61,0.00,,,0.00,VWS V14.01,2013-04-22 02:20:00,
2013-04-21 22:24:00,43.5,31.0,30.55,SSE,150,4.0,4.0,61,0.00,,,0.00,VWS V14.01,2013-04-22 02:24:00,
2013-04-21 22:25:00,43.5,31.0,30.55,SSE,150,0.0,4.0,61,0.00,,,0.00,VWS V14.01,2013-04-22 02:25:00,
2013-04-21 22:26:00,43.5,31.0,30.55,SSE,150,0.0,4.0,61,0.00,,,0.00,VWS V14.01,2013-04-22 02:26:00,
2013-04-21 22:27:00,43.5,31.0,30.55,SSE,150,0.0,4.0,61,0.00,,,0.00,VWS V14.01,2013-04-22 02:27:00,
2013-04-21 22:28:00,43.5,31.0,30.55,SSE,150,0.0,4.0,61,0.00,,,0.00,VWS V14.01,2013-04-22 02:28:00,
2013-04-21 22:30:00,43.5,31.4,30.55,SSE,148,2.0,5.0,62,0.00,,,0.00,VWS V14.01,2013-04-22 02:30:00,
2013-04-21 22:31:00,43.5,31.0,30.55,SSE,148,0.0,5.0,61,0.00,,,0.00,VWS V14.01,2013-04-22 02:31:00,
2013-04-21 22:33:00,43.5,31.0,30.55,SSE,148,0.0,5.0,61,0.00,,,0.00,VWS V14.01,2013-04-22 02:33:00,
2013-04-21 22:34:00,43.5,31.0,30.55,SSE,148,0.0,5.0,61,0.00,,,0.00,VWS V14.01,2013-04-22 02:34:00,
2013-04-21 22:38:00,43.5,31.4,30.55,SSE,148,0.0,2.0,62,0.00,,,0.00,VWS V14.01,2013-04-22 02:38:00,
2013-04-21 22:39:00,43.5,31.4,30.55,SSE,148,0.0,2.0,62,0.00,,,0.00,VWS V14.01,2013-04-22 02:39:00,
2013-04-21 22:41:00,43.5,31.0,30.55,SSE,148,0.0,2.0,61,0.00,,,0.00,VWS V14.01,2013-04-22 02:41:00,
2013-04-21 22:42:00,43.5,31.4,30.55,SSE,148,0.0,2.0,62,0.00,,,0.00,VWS V14.01,2013-04-22 02:42:00,
2013-04-21 22:43:00,43.5,31.4,30.55,SSE,148,0.0,2.0,62,0.00,,,0.00,VWS V14.01,2013-04-22 02:43:00,
2013-04-21 22:48:00,43.3,31.2,30.55,SSE,148,0.0,2.0,62,0.00,,,0.00,VWS V14.01,2013-04-22 02:48:00,
2013-04-21 22:49:00,43.3,31.2,30.55,SSE,148,0.0,2.0,62,0.00,,,0.00,VWS V14.01,2013-04-22 02:49:00,
2013-04-21 22:51:00,43.3,31.2,30.55,SSE,148,0.0,2.0,62,0.00,,,0.00,VWS V14.01,2013-04-22 02:51:00,
2013-04-21 22:53:00,43.2,31.1,30.55,SSE,148,0.0,2.0,62,0.00,,,0.00,VWS V14.01,2013-04-22 02:53:00,
2013-04-21 22:54:00,43.2,31.1,30.55,SSE,148,0.0,2.0,62,0.00,,,0.00,VWS V14.01,2013-04-22 02:54:00,
2013-04-21 22:56:00,43.2,31.1,30.55,SSE,148,0.0,2.0,62,0.00,,,0.00,VWS V14.01,2013-04-22 02:56:00,
2013-04-21 22:59:00,43.1,31.0,30.55,SSE,148,0.0,2.0,62,0.00,,,0.00,VWS V14.01,2013-04-22 02:59:00,
2013-04-21 23:00:00,43.1,31.4,30.55,SSE,148,0.0,2.0,63,0.00,,,0.00,VWS V14.01,2013-04-22 03:00:00,
2013-04-21 23:02:00,43.1,31.4,30.55,SSE,148,0.0,5.0,63,0.00,,,0.00,VWS V14.01,2013-04-22 03:02:00,
2013-04-21 23:05:00,43.1,31.0,30.55,SE,129,2.0,5.0,62,0.00,,,0.00,VWS V14.01,2013-04-22 03:05:00,
2013-04-21 23:07:00,43.2,30.7,30.55,SE,129,0.0,5.0,61,0.00,,,0.00,VWS V14.01,2013-04-22 03:07:00,
2013-04-21 23:10:00,43.3,31.2,30.55,SE,130,0.0,6.0,62,0.00,,,0.00,VWS V14.01,2013-04-22 03:10:00,
2013-04-21 23:12:00,43.5,31.0,30.55,SE,130,1.0,6.0,61,0.00,,,0.00,VWS V14.01,2013-04-22 03:12:00,
2013-04-21 23:13:00,43.5,31.0,30.55,SE,130,0.0,6.0,61,0.00,,,0.00,VWS V14.01,2013-04-22 03:13:00,
2013-04-21 23:14:00,43.5,31.0,30.55,SE,130,1.0,6.0,61,0.00,,,0.00,VWS V14.01,2013-04-22 03:14:00,
2013-04-21 23:17:00,43.5,30.5,30.55,SE,130,0.0,6.0,60,0.00,,,0.00,VWS V14.01,2013-04-22 03:17:00,
2013-04-21 23:20:00,43.5,30.5,30.55,ESE,117,4.0,7.0,60,0.00,,,0.00,VWS V14.01,2013-04-22 03:20:00,
2013-04-21 23:22:00,43.5,30.5,30.55,ESE,117,1.0,7.0,60,0.00,,,0.00,VWS V14.01,2013-04-22 03:22:00,
2013-04-21 23:23:00,43.5,30.5,30.55,ESE,117,5.0,7.0,60,0.00,,,0.00,VWS V14.01,2013-04-22 03:23:00,
2013-04-21 23:24:00,43.5,30.5,30.55,ESE,117,0.0,7.0,60,0.00,,,0.00,VWS V14.01,2013-04-22 03:24:00,
2013-04-21 23:27:00,43.6,31.0,30.55,ESE,118,4.0,7.0,61,0.00,,,0.00,VWS V14.01,2013-04-22 03:27:00,
2013-04-21 23:29:00,43.6,31.0,30.55,ESE,118,0.0,7.0,61,0.00,,,0.00,VWS V14.01,2013-04-22 03:29:00,
2013-04-21 23:30:00,43.6,31.0,30.55,ESE,118,2.0,7.0,61,0.00,,,0.00,VWS V14.01,2013-04-22 03:30:00,
2013-04-21 23:31:00,43.6,31.0,30.55,ESE,118,0.0,7.0,61,0.00,,,0.00,VWS V14.01,2013-04-22 03:31:00,
2013-04-21 23:33:00,43.6,30.6,30.55,ESE,118,2.0,7.0,60,0.00,,,0.00,VWS V14.01,2013-04-22 03:33:00,
2013-04-21 23:36:00,43.8,30.8,30.56,ESE,118,2.0,6.0,60,0.00,,,0.00,VWS V14.01,2013-04-22 03:36:00,
2013-04-21 23:37:00,43.8,30.8,30.56,ESE,119,0.0,7.0,60,0.00,,,0.00,VWS V14.01,2013-04-22 03:37:00,
2013-04-21 23:39:00,43.8,31.2,30.56,ESE,119,5.0,7.0,61,0.00,,,0.00,VWS V14.01,2013-04-22 03:39:00,
2013-04-21 23:40:00,43.8,31.2,30.56,ESE,119,2.0,7.0,61,0.00,,,0.00,VWS V14.01,2013-04-22 03:40:00,
2013-04-21 23:41:00,43.9,30.9,30.56,ESE,119,4.0,7.0,60,0.00,,,0.00,VWS V14.01,2013-04-22 03:41:00,
2013-04-21 23:43:00,43.9,30.9,30.56,SE,128,8.0,8.0,60,0.00,,,0.00,VWS V14.01,2013-04-22 03:43:00,
2013-04-21 23:46:00,43.9,30.1,30.56,SE,131,0.0,11.0,58,0.00,,,0.00,VWS V14.01,2013-04-22 03:46:00,
2013-04-21 23:47:00,43.9,30.5,30.56,SE,129,1.0,11.0,59,0.00,,,0.00,VWS V14.01,2013-04-22 03:47:00,
2013-04-21 23:48:00,43.9,30.5,30.56,ESE,115,8.0,11.0,59,0.00,,,0.00,VWS V14.01,2013-04-22 03:48:00,
2013-04-21 23:49:00,43.9,30.5,30.56,SE,124,8.0,11.0,59,0.00,,,0.00,VWS V14.01,2013-04-22 03:49:00,
2013-04-21 23:53:00,43.9,29.7,30.56,ESE,121,4.0,11.0,57,0.00,,,0.00,VWS V14.01,2013-04-22 03:53:00,
2013-04-21 23:54:00,43.9,29.7,30.56,ESE,119,4.0,11.0,57,0.00,,,0.00,VWS V14.01,2013-04-22 03:54:00,
2013-04-21 23:56:00,43.9,30.1,30.56,ESE,117,9.0,11.0,58,0.00,,,0.00,VWS V14.01,2013-04-22 03:56:00,
2013-04-21 23:58:00,43.9,29.7,30.56,ESE,123,7.0,11.0,57,0.00,,,0.00,VWS V14.01,2013-04-22 03:58:00,
2013-04-21 23:59:00,43.9,29.7,30.56,ESE,117,6.0,11.0,57,0.00,,,0.00,VWS V14.01,2013-04-22 03:59:00,